Time,TemperatureF,DewpointF,PressureIn,WindDirection,WindDirectionDegrees,WindSpeedMPH,WindSpeedGustMPH,Humidity,HourlyPrecipIn,Conditions,Clouds,dailyrainin,SolarRadiationWatts/m^2,SoftwareType,DateUTC
2013-03-21 00:00:00,50.2,28.5,29.81,WSW,248,20.0,24.0,43,0.00,,,0.00,0,Wunderground v.1.15,2013-03-21 07:00:00,
2013-03-21 00:04:00,50.4,28.7,29.81,WSW,250,16.0,26.0,43,0.00,,,0.00,0,Wunderground v.1.15,2013-03-21 07:04:00,
2013-03-21 00:05:00,50.4,28.7,29.81,SW,227,15.0,26.0,43,0.00,,,0.00,0,Wunderground v.1.15,2013-03-21 07:05:00,
2013-03-21 00:10:00,50.0,28.4,29.80,WSW,241,17.0,20.0,43,0.00,,,0.00,0,Wunderground v.1.15,2013-03-21 07:10:00,
2013-03-21 00:12:00,49.8,28.7,29.80,WSW,254,15.0,20.0,44,0.00,,,0.00,0,Wunderground v.1.15,2013-03-21 07:12:00,
2013-03-21 00:13:00,49.8,28.7,29.80,SW,229,13.0,20.0,44,0.00,,,0.00,0,Wunderground v.1.15,2013-03-21 07:13:00,
2013-03-21 00:17:00,49.8,28.7,29.79,WSW,249,19.0,21.0,44,0.00,,,0.00,0,Wunderground v.1.15,2013-03-21 07:17:00,
2013-03-21 00:18:00,49.8,28.7,29.80,WSW,252,20.0,21.0,44,0.00,,,0.00,0,Wunderground v.1.15,2013-03-21 07:18:00,
2013-03-21 00:19:00,49.7,28.6,29.79,WSW,257,13.0,21.0,44,0.00,,,0.00,0,Wunderground v.1.15,2013-03-21 07:19:00,
2013-03-21 00:20:00,49.7,28.6,29.79,WSW,248,14.0,18.0,44,0.00,,,0.00,0,Wunderground v.1.15,2013-03-21 07:20:00,
2013-03-21 00:23:00,49.7,28.6,29.79,SW,227,21.0,21.0,44,0.00,,,0.00,0,Wunderground v.1.15,2013-03-21 07:23:00,
2013-03-21 00:25:00,49.7,28.6,29.79,WSW,241,24.0,24.0,44,0.00,,,0.00,0,Wunderground v.1.15,2013-03-21 07:25:00,
2013-03-21 00:29:00,49.9,28.8,29.79,WSW,237,21.0,24.0,44,0.00,,,0.00,0,Wunderground v.1.15,2013-03-21 07:29:00,
2013-03-21 00:30:00,50.0,28.9,29.79,WSW,238,17.0,20.0,44,0.00,,,0.00,0,Wunderground v.1.15,2013-03-21 07:30:00,
2013-03-21 00:33:00,49.8,28.7,29.79,WSW,249,14.0,21.0,44,0.00,,,0.00,0,Wunderground v.1.15,2013-03-21 07:33:00,
2013-03-21 00:37:00,49.5,29.0,29.79,SW,219,23.0,23.0,45,0.00,,,0.00,0,Wunderground v.1.15,2013-03-21 07:37:00,
2013-03-21 00:38:00,49.4,28.9,29.79,WSW,238,14.0,23.0,45,0.00,,,0.00,0,Wunderground v.1.15,2013-03-21 07:38:00,
2013-03-21 00:40:00,49.5,29.0,29.78,SW,234,18.0,18.0,45,0.00,,,0.00,0,Wunderground v.1.15,2013-03-21 07:40:00,
2013-03-21 00:43:00,49.6,29.1,29.79,SW,217,19.0,19.0,45,0.00,,,0.00,0,Wunderground v.1.15,2013-03-21 07:43:00,
2013-03-21 00:44:00,49.7,28.6,29.79,SW,231,17.0,19.0,44,0.00,,,0.00,0,Wunderground v.1.15,2013-03-21 07:44:00,
2013-03-21 00:48:00,49.8,28.7,29.78,WSW,246,20.0,27.0,44,0.00,,,0.00,0,Wunderground v.1.15,2013-03-21 07:48:00,
2013-03-21 00:49:00,49.8,28.7,29.78,WSW,240,13.0,27.0,44,0.00,,,0.00,0,Wunderground v.1.15,2013-03-21 07:49:00,
2013-03-21 00:50:00,49.8,28.7,29.78,SW,219,16.0,20.0,44,0.00,,,0.00,0,Wunderground v.1.15,2013-03-21 07:50:00,
2013-03-21 00:53:00,49.8,28.7,29.78,WSW,240,16.0,25.0,44,0.00,,,0.00,0,Wunderground v.1.15,2013-03-21 07:53:00,
2013-03-21 00:54:00,49.8,28.7,29.78,SW,230,14.0,25.0,44,0.00,,,0.00,0,Wunderground v.1.15,2013-03-21 07:54:00,
2013-03-21 00:56:00,49.7,28.6,29.77,WSW,244,17.0,25.0,44,0.00,,,0.00,0,Wunderground v.1.15,2013-03-21 07:56:00,
2013-03-21 00:58:00,49.6,29.1,29.77,SW,225,28.0,28.0,45,0.00,,,0.00,0,Wunderground v.1.15,2013-03-21 07:58:00,
2013-03-21 00:59:00,49.7,28.6,29.77,WSW,250,24.0,28.0,44,0.00,,,0.00,0,Wunderground v.1.15,2013-03-21 07:59:00,
2013-03-21 01:02:00,49.6,28.6,29.77,WSW,248,18.0,23.0,44,0.00,,,0.00,0,Wunderground v.1.15,2013-03-21 08:02:00,
2013-03-21 01:03:00,49.6,29.1,29.77,West,263,18.0,23.0,45,0.00,,,0.00,0,Wunderground v.1.15,2013-03-21 08:03:00,
2013-03-21 01:06:00,49.6,29.1,29.76,WSW,248,23.0,23.0,45,0.00,,,0.00,0,Wunderground v.1.15,2013-03-21 08:06:00,
2013-03-21 01:08:00,49.7,28.6,29.76,WSW,254,21.0,23.0,44,0.00,,,0.00,0,Wunderground v.1.15,2013-03-21 08:08:00,
2013-03-21 01:10:00,49.7,28.6,29.76,SW,236,18.0,19.0,44,0.00,,,0.00,0,Wunderground v.1.15,2013-03-21 08:10:00,
2013-03-21 01:11:00,49.7,29.2,29.76,SW,223,24.0,24.0,45,0.00,,,0.00,0,Wunderground v.1.15,2013-03-21 08:11:00,
2013-03-21 01:14:00,49.5,29.0,29.76,West,259,18.0,24.0,45,0.00,,,0.00,0,Wunderground v.1.15,2013-03-21 08:14:00,
2013-03-21 01:15:00,49.4,28.9,29.76,SW,230,19.0,24.0,45,0.00,,,0.00,0,Wunderground v.1.15,2013-03-21 08:15:00,
2013-03-21 01:16:00,49.4,28.9,29.76,SW,235,14.0,24.0,45,0.00,,,0.00,0,Wunderground v.1.15,2013-03-21 08:16:00,
2013-03-21 01:17:00,49.3,28.8,29.76,WSW,239,26.0,26.0,45,0.00,,,0.00,0,Wunderground v.1.15,2013-03-21 08:17:00,
2013-03-21 01:20:00,49.1,29.2,29.76,West,259,18.0,19.0,46,0.00,,,0.00,0,Wunderground v.1.15,2013-03-21 08:20:00,
2013-03-21 01:22:00,49.0,29.1,29.76,WSW,238,26.0,26.0,46,0.00,,,0.00,0,Wunderground v.1.15,2013-03-21 08:22:00,
2013-03-21 01:24:00,49.0,29.1,29.76,WSW,242,17.0,26.0,46,0.00,,,0.00,0,Wunderground v.1.15,2013-03-21 08:24:00,
2013-03-21 01:26:00,49.0,29.1,29.76,SW,236,17.0,26.0,46,0.00,,,0.00,0,Wunderground v.1.15,2013-03-21 08:26:00,
2013-03-21 01:30:00,48.9,29.0,29.76,SW,234,21.0,21.0,46,0.00,,,0.00,0,Wunderground v.1.15,2013-03-21 08:30:00,
2013-03-21 01:31:00,48.8,28.9,29.76,WSW,237,16.0,21.0,46,0.00,,,0.00,0,Wunderground v.1.15,2013-03-21 08:31:00,
2013-03-21 01:33:00,48.8,28.9,29.76,WSW,256,12.0,21.0,46,0.00,,,0.00,0,Wunderground v.1.15,2013-03-21 08:33:00,
2013-03-21 01:35:00,48.6,28.7,29.76,SW,231,15.0,21.0,46,0.00,,,0.00,0,Wunderground v.1.15,2013-03-21 08:35:00,
2013-03-21 01:36:00,48.6,29.3,29.76,SW,229,13.0,21.0,47,0.00,,,0.00,0,Wunderground v.1.15,2013-03-21 08:36:00,
2013-03-21 01:38:00,48.7,28.8,29.76,WSW,238,18.0,24.0,46,0.00,,,0.00,0,Wunderground v.1.15,2013-03-21 08:38:00,
2013-03-21 01:39:00,48.8,28.9,29.76,SW,228,17.0,24.0,46,0.00,,,0.00,0,Wunderground v.1.15,2013-03-21 08:39:00,
2013-03-21 01:42:00,48.8,28.9,29.76,WSW,242,14.0,17.0,46,0.00,,,0.00,0,Wunderground v.1.15,2013-03-21 08:42:00,
2013-03-21 01:44:00,48.8,28.9,29.76,WSW,238,9.0,17.0,46,0.00,,,0.00,0,Wunderground v.1.15,2013-03-21 08:44:00,
2013-03-21 01:45:00,48.8,28.9,29.76,WSW,242,13.0,17.0,46,0.00,,,0.00,0,Wunderground v.1.15,2013-03-21 08:45:00,
2013-03-21 01:49:00,49.0,28.6,29.75,WSW,238,20.0,22.0,45,0.00,,,0.00,0,Wunderground v.1.15,2013-03-21 08:49:00,
2013-03-21 01:51:00,49.2,28.7,29.75,WSW,252,15.0,15.0,45,0.00,,,0.00,0,Wunderground v.1.15,2013-03-21 08:51:00,
2013-03-21 01:52:00,49.3,28.8,29.76,WSW,238,20.0,20.0,45,0.00,,,0.00,0,Wunderground v.1.15,2013-03-21 08:52:00,
2013-03-21 01:54:00,49.5,29.0,29.76,WSW,244,20.0,21.0,45,0.00,,,0.00,0,Wunderground v.1.15,2013-03-21 08:54:00,
2013-03-21 01:56:00,49.6,28.6,29.76,SW,215,13.0,21.0,44,0.00,,,0.00,0,Wunderground v.1.15,2013-03-21 08:56:00,
2013-03-21 01:59:00,49.7,28.6,29.75,WSW,242,18.0,21.0,44,0.00,,,0.00,0,Wunderground v.1.15,2013-03-21 08:59:00,
2013-03-21 02:00:00,49.8,28.7,29.75,WSW,246,14.0,18.0,44,0.00,,,0.00,0,Wunderground v.1.15,2013-03-21 09:00:00,
2013-03-21 02:01:00,49.8,28.7,29.75,WSW,241,29.0,29.0,44,0.00,,,0.00,0,Wunderground v.1.15,2013-03-21 09:01:00,
2013-03-21 02:02:00,49.8,28.7,29.75,SW,232,13.0,29.0,44,0.00,,,0.00,0,Wunderground v.1.15,2013-03-21 09:02:00,
2013-03-21 02:04:00,49.7,28.6,29.75,WSW,241,19.0,29.0,44,0.00,,,0.00,0,Wunderground v.1.15,2013-03-21 09:04:00,
2013-03-21 02:05:00,49.7,28.6,29.75,WSW,252,22.0,29.0,44,0.00,,,0.00,0,Wunderground v.1.15,2013-03-21 09:05:00,
2013-03-21 02:07:00,49.7,28.6,29.75,WSW,237,16.0,29.0,44,0.00,,,0.00,0,Wunderground v.1.15,2013-03-21 09:07:00,
2013-03-21 02:09:00,49.7,28.6,29.75,WSW,245,20.0,29.0,44,0.00,,,0.00,0,Wunderground v.1.15,2013-03-21 09:09:00,
2013-03-21 02:10:00,49.8,28.7,29.75,WSW,244,22.0,22.0,44,0.00,,,0.00,0,Wunderground v.1.15,2013-03-21 09:10:00,
2013-03-21 02:12:00,49.9,28.8,29.75,WSW,238,26.0,31.0,44,0.00,,,0.00,0,Wunderground v.1.15,2013-03-21 09:12:00,
2013-03-21 02:14:00,50.1,29.0,29.75,WSW,244,24.0,33.0,44,0.00,,,0.00,0,Wunderground v.1.15,2013-03-21 09:14:00,
2013-03-21 02:15:00,50.1,29.0,29.75,WSW,245,17.0,33.0,44,0.00,,,0.00,0,Wunderground v.1.15,2013-03-21 09:15:00,
2013-03-21 02:17:00,50.0,28.9,29.75,WSW,253,14.0,33.0,44,0.00,,,0.00,0,Wunderground v.1.15,2013-03-21 09:17:00,
2013-03-21 02:18:00,49.9,28.8,29.75,WSW,249,27.0,33.0,44,0.00,,,0.00,0,Wunderground v.1.15,2013-03-21 09:18:00,
2013-03-21 02:19:00,49.9,28.8,29.75,West,271,16.0,33.0,44,0.00,,,0.00,0,Wunderground v.1.15,2013-03-21 09:19:00,
2013-03-21 02:21:00,49.7,28.6,29.74,WSW,254,22.0,32.0,44,0.00,,,0.00,0,Wunderground v.1.15,2013-03-21 09:21:00,
2013-03-21 02:22:00,49.7,28.6,29.75,WSW,249,17.0,32.0,44,0.00,,,0.00,0,Wunderground v.1.15,2013-03-21 09:22:00,
2013-03-21 02:23:00,49.7,28.6,29.75,WSW,253,26.0,32.0,44,0.00,,,0.00,0,Wunderground v.1.15,2013-03-21 09:23:00,
2013-03-21 02:24:00,49.8,28.7,29.74,SW,232,19.0,32.0,44,0.00,,,0.00,0,Wunderground v.1.15,2013-03-21 09:24:00,
2013-03-21 02:26:00,49.9,28.8,29.74,WSW,253,21.0,34.0,44,0.00,,,0.00,0,Wunderground v.1.15,2013-03-21 09:26:00,
2013-03-21 02:27:00,49.9,28.8,29.74,WSW,248,23.0,34.0,44,0.00,,,0.00,0,Wunderground v.1.15,2013-03-21 09:27:00,
2013-03-21 02:29:00,49.9,28.8,29.74,SW,232,28.0,34.0,44,0.00,,,0.00,0,Wunderground v.1.15,2013-03-21 09:29:00,
2013-03-21 02:32:00,49.9,28.8,29.73,WSW,250,24.0,33.0,44,0.00,,,0.00,0,Wunderground v.1.15,2013-03-21 09:32:00,
2013-03-21 02:34:00,50.0,28.9,29.73,WSW,254,26.0,37.0,44,0.00,,,0.00,0,Wunderground v.1.15,2013-03-21 09:34:00,
2013-03-21 02:35:00,50.0,28.9,29.73,West,272,27.0,37.0,44,0.00,,,0.00,0,Wunderground v.1.15,2013-03-21 09:35:00,
2013-03-21 02:37:00,49.8,28.7,29.73,West,261,23.0,37.0,44,0.00,,,0.00,0,Wunderground v.1.15,2013-03-21 09:37:00,
2013-03-21 02:38:00,49.8,28.7,29.73,WSW,246,19.0,37.0,44,0.00,,,0.00,0,Wunderground v.1.15,2013-03-21 09:38:00,
2013-03-21 02:39:00,49.8,28.7,29.73,WSW,249,27.0,37.0,44,0.00,,,0.00,0,Wunderground v.1.15,2013-03-21 09:39:00,
2013-03-21 02:40:00,49.9,28.8,29.73,WSW,247,20.0,34.0,44,0.00,,,0.00,0,Wunderground v.1.15,2013-03-21 09:40:00,
2013-03-21 02:43:00,49.8,28.7,29.73,WSW,248,14.0,34.0,44,0.00,,,0.00,0,Wunderground v.1.15,2013-03-21 09:43:00,
2013-03-21 02:44:00,49.7,29.2,29.73,SW,234,27.0,34.0,45,0.00,,,0.00,0,Wunderground v.1.15,2013-03-21 09:44:00,
2013-03-21 02:45:00,49.7,29.2,29.73,WSW,249,27.0,34.0,45,0.00,,,0.00,0,Wunderground v.1.15,2013-03-21 09:45:00,
2013-03-21 02:48:00,49.8,28.7,29.73,West,260,21.0,34.0,44,0.00,,,0.00,0,Wunderground v.1.15,2013-03-21 09:48:00,
2013-03-21 02:49:00,49.7,28.6,29.73,WSW,248,18.0,34.0,44,0.00,,,0.00,0,Wunderground v.1.15,2013-03-21 09:49:00,
2013-03-21 02:51:00,49.6,29.1,29.73,West,268,25.0,26.0,45,0.00,,,0.00,0,Wunderground v.1.15,2013-03-21 09:51:00,
2013-03-21 02:53:00,49.4,28.9,29.73,West,261,26.0,31.0,45,0.00,,,0.00,0,Wunderground v.1.15,2013-03-21 09:53:00,
2013-03-21 02:54:00,49.3,28.8,29.73,WSW,242,29.0,31.0,45,0.00,,,0.00,0,Wunderground v.1.15,2013-03-21 09:54:00,
2013-03-21 02:55:00,49.3,28.8,29.73,West,259,23.0,32.0,45,0.00,,,0.00,0,Wunderground v.1.15,2013-03-21 09:55:00,
2013-03-21 02:56:00,49.4,28.9,29.73,WSW,238,29.0,34.0,45,0.00,,,0.00,0,Wunderground v.1.15,2013-03-21 09:56:00,
2013-03-21 02:59:00,49.5,29.0,29.73,West,269,23.0,34.0,45,0.00,,,0.00,0,Wunderground v.1.15,2013-03-21 09:59:00,
2013-03-21 03:00:00,49.5,29.0,29.73,WSW,248,20.0,27.0,45,0.00,,,0.00,0,Wunderground v.1.15,2013-03-21 10:00:00,
2013-03-21 03:01:00,49.5,29.0,29.73,WSW,250,26.0,29.0,45,0.00,,,0.00,0,Wunderground v.1.15,2013-03-21 10:01:00,
2013-03-21 03:04:00,49.4,29.5,29.72,WSW,244,23.0,30.0,46,0.00,,,0.00,0,Wunderground v.1.15,2013-03-21 10:04:00,
2013-03-21 03:05:00,49.4,29.5,29.72,WSW,247,31.0,33.0,46,0.00,,,0.00,0,Wunderground v.1.15,2013-03-21 10:05:00,
2013-03-21 03:06:00,49.5,29.6,29.72,West,259,23.0,33.0,46,0.00,,,0.00,0,Wunderground v.1.15,2013-03-21 10:06:00,
2013-03-21 03:07:00,49.5,29.6,29.72,WSW,250,33.0,34.0,46,0.00,,,0.00,0,Wunderground v.1.15,2013-03-21 10:07:00,
2013-03-21 03:09:00,49.6,29.1,29.72,WSW,254,23.0,34.0,45,0.00,,,0.00,0,Wunderground v.1.15,2013-03-21 10:09:00,
2013-03-21 03:10:00,49.6,29.1,29.72,WSW,253,29.0,36.0,45,0.00,,,0.00,0,Wunderground v.1.15,2013-03-21 10:10:00,
2013-03-21 03:11:00,49.7,29.2,29.72,WSW,248,17.0,36.0,45,0.00,,,0.00,0,Wunderground v.1.15,2013-03-21 10:11:00,
2013-03-21 03:12:00,49.6,29.1,29.72,WSW,256,19.0,36.0,45,0.00,,,0.00,0,Wunderground v.1.15,2013-03-21 10:12:00,
2013-03-21 03:14:00,49.4,29.5,29.72,WSW,253,30.0,36.0,46,0.00,,,0.00,0,Wunderground v.1.15,2013-03-21 10:14:00,
2013-03-21 03:15:00,49.5,29.6,29.72,WSW,254,30.0,36.0,46,0.00,,,0.00,0,Wunderground v.1.15,2013-03-21 10:15:00,
2013-03-21 03:17:00,49.5,29.6,29.72,West,261,25.0,36.0,46,0.00,,,0.00,0,Wunderground v.1.15,2013-03-21 10:17:00,
2013-03-21 03:18:00,49.6,29.6,29.72,WSW,242,28.0,36.0,46,0.00,,,0.00,0,Wunderground v.1.15,2013-03-21 10:18:00,
2013-03-21 03:19:00,49.6,29.6,29.72,SW,234,24.0,36.0,46,0.00,,,0.00,0,Wunderground v.1.15,2013-03-21 10:19:00,
2013-03-21 03:21:00,49.6,29.1,29.72,WSW,251,14.0,32.0,45,0.00,,,0.00,0,Wunderground v.1.15,2013-03-21 10:21:00,
2013-03-21 03:22:00,49.5,29.0,29.72,WSW,254,23.0,32.0,45,0.00,,,0.00,0,Wunderground v.1.15,2013-03-21 10:22:00,
2013-03-21 03:24:00,49.2,29.3,29.73,West,263,25.0,32.0,46,0.00,,,0.00,0,Wunderground v.1.15,2013-03-21 10:24:00,
2013-03-21 03:26:00,49.3,29.4,29.72,WSW,248,26.0,32.0,46,0.00,,,0.00,0,Wunderground v.1.15,2013-03-21 10:26:00,
2013-03-21 03:27:00,49.3,29.4,29.72,SW,233,22.0,32.0,46,0.00,,,0.00,0,Wunderground v.1.15,2013-03-21 10:27:00,
2013-03-21 03:29:00,49.4,29.5,29.72,WSW,254,15.0,32.0,46,0.00,,,0.00,0,Wunderground v.1.15,2013-03-21 10:29:00,
2013-03-21 03:32:00,49.2,29.3,29.73,West,265,19.0,25.0,46,0.00,,,0.00,0,Wunderground v.1.15,2013-03-21 10:32:00,
2013-03-21 03:34:00,49.0,29.1,29.73,WSW,254,24.0,25.0,46,0.00,,,0.00,0,Wunderground v.1.15,2013-03-21 10:34:00,
2013-03-21 03:37:00,49.1,29.7,29.72,WSW,248,25.0,27.0,47,0.00,,,0.00,0,Wunderground v.1.15,2013-03-21 10:37:00,
2013-03-21 03:38:00,49.1,29.7,29.72,WSW,258,24.0,27.0,47,0.00,,,0.00,0,Wunderground v.1.15,2013-03-21 10:38:00,
2013-03-21 03:39:00,49.1,29.7,29.72,WSW,244,26.0,27.0,47,0.00,,,0.00,0,Wunderground v.1.15,2013-03-21 10:39:00,
2013-03-21 03:40:00,49.1,29.2,29.72,WSW,253,25.0,25.0,46,0.00,,,0.00,0,Wunderground v.1.15,2013-03-21 10:40:00,
2013-03-21 03:42:00,49.1,29.2,29.73,WSW,251,18.0,27.0,46,0.00,,,0.00,0,Wunderground v.1.15,2013-03-21 10:42:00,
2013-03-21 03:43:00,49.1,29.2,29.72,WSW,253,17.0,27.0,46,0.00,,,0.00,0,Wunderground v.1.15,2013-03-21 10:43:00,
2013-03-21 03:44:00,49.1,29.7,29.72,WSW,250,13.0,27.0,47,0.00,,,0.00,0,Wunderground v.1.15,2013-03-21 10:44:00,
2013-03-21 03:46:00,49.0,29.1,29.72,WSW,244,17.0,27.0,46,0.00,,,0.00,0,Wunderground v.1.15,2013-03-21 10:46:00,
2013-03-21 03:48:00,48.9,29.0,29.73,WSW,250,18.0,27.0,46,0.00,,,0.00,0,Wunderground v.1.15,2013-03-21 10:48:00,
2013-03-21 03:50:00,48.7,29.4,29.73,West,269,21.0,21.0,47,0.00,,,0.00,0,Wunderground v.1.15,2013-03-21 10:50:00,
2013-03-21 03:52:00,48.6,29.3,29.73,West,263,13.0,21.0,47,0.00,,,0.00,0,Wunderground v.1.15,2013-03-21 10:52:00,
2013-03-21 03:53:00,48.6,29.3,29.73,WSW,257,12.0,21.0,47,0.00,,,0.00,0,Wunderground v.1.15,2013-03-21 10:53:00,
2013-03-21 03:54:00,48.6,29.3,29.73,West,267,14.0,23.0,47,0.00,,,0.00,0,Wunderground v.1.15,2013-03-21 10:54:00,
2013-03-21 03:55:00,48.6,29.3,29.73,West,259,16.0,23.0,47,0.00,,,0.00,0,Wunderground v.1.15,2013-03-21 10:55:00,
2013-03-21 03:57:00,48.5,29.2,29.73,WSW,244,12.0,23.0,47,0.00,,,0.00,0,Wunderground v.1.15,2013-03-21 10:57:00,
2013-03-21 03:58:00,48.5,29.2,29.73,WSW,256,12.0,23.0,47,0.00,,,0.00,0,Wunderground v.1.15,2013-03-21 10:58:00,
2013-03-21 03:59:00,48.4,29.1,29.73,WSW,254,15.0,23.0,47,0.00,,,0.00,0,Wunderground v.1.15,2013-03-21 10:59:00,
2013-03-21 04:00:00,48.3,29.0,29.73,West,260,14.0,16.0,47,0.00,,,0.00,0,Wunderground v.1.15,2013-03-21 11:00:00,
2013-03-21 04:02:00,48.3,29.0,29.73,WSW,247,16.0,19.0,47,0.00,,,0.00,0,Wunderground v.1.15,2013-03-21 11:02:00,
2013-03-21 04:04:00,48.3,29.0,29.73,WSW,253,14.0,21.0,47,0.00,,,0.00,0,Wunderground v.1.15,2013-03-21 11:04:00,
2013-03-21 04:06:00,48.3,29.0,29.73,WSW,250,14.0,25.0,47,0.00,,,0.00,0,Wunderground v.1.15,2013-03-21 11:06:00,
2013-03-21 04:07:00,48.3,29.0,29.73,WSW,250,15.0,25.0,47,0.00,,,0.00,0,Wunderground v.1.15,2013-03-21 11:07:00,
2013-03-21 04:09:00,48.2,28.9,29.73,WSW,245,18.0,25.0,47,0.00,,,0.00,0,Wunderground v.1.15,2013-03-21 11:09:00,
2013-03-21 04:12:00,48.1,29.3,29.72,WSW,247,13.0,20.0,48,0.00,,,0.00,0,Wunderground v.1.15,2013-03-21 11:12:00,
2013-03-21 04:14:00,48.0,29.2,29.72,WSW,242,16.0,20.0,48,0.00,,,0.00,0,Wunderground v.1.15,2013-03-21 11:14:00,
2013-03-21 04:15:00,48.0,29.2,29.72,WSW,258,18.0,20.0,48,0.00,,,0.00,0,Wunderground v.1.15,2013-03-21 11:15:00,
2013-03-21 04:17:00,48.0,29.2,29.72,WSW,248,18.0,23.0,48,0.00,,,0.00,0,Wunderground v.1.15,2013-03-21 11:17:00,
2013-03-21 04:18:00,48.0,29.2,29.72,WSW,240,11.0,23.0,48,0.00,,,0.00,0,Wunderground v.1.15,2013-03-21 11:18:00,
2013-03-21 04:19:00,47.9,29.1,29.72,WSW,246,13.0,23.0,48,0.00,,,0.00,0,Wunderground v.1.15,2013-03-21 11:19:00,
2013-03-21 04:20:00,47.8,29.0,29.72,WSW,243,14.0,18.0,48,0.00,,,0.00,0,Wunderground v.1.15,2013-03-21 11:20:00,
2013-03-21 04:23:00,47.7,28.9,29.71,WSW,240,14.0,22.0,48,0.00,,,0.00,0,Wunderground v.1.15,2013-03-21 11:23:00,
2013-03-21 04:24:00,47.7,28.9,29.72,WSW,244,16.0,22.0,48,0.00,,,0.00,0,Wunderground v.1.15,2013-03-21 11:24:00,
2013-03-21 04:25:00,47.8,29.0,29.71,WSW,252,18.0,22.0,48,0.00,,,0.00,0,Wunderground v.1.15,2013-03-21 11:25:00,
2013-03-21 04:28:00,47.8,29.0,29.71,WSW,239,13.0,22.0,48,0.00,,,0.00,0,Wunderground v.1.15,2013-03-21 11:28:00,
2013-03-21 04:30:00,47.8,29.0,29.71,WSW,248,10.0,16.0,48,0.00,,,0.00,0,Wunderground v.1.15,2013-03-21 11:30:00,
2013-03-21 04:33:00,47.6,29.4,29.71,SW,236,15.0,22.0,49,0.00,,,0.00,0,Wunderground v.1.15,2013-03-21 11:33:00,
2013-03-21 04:34:00,47.6,29.4,29.71,WSW,247,18.0,22.0,49,0.00,,,0.00,0,Wunderground v.1.15,2013-03-21 11:34:00,
2013-03-21 04:35:00,47.5,29.3,29.71,WSW,237,13.0,22.0,49,0.00,,,0.00,0,Wunderground v.1.15,2013-03-21 11:35:00,
2013-03-21 04:38:00,47.5,29.3,29.71,WSW,250,17.0,23.0,49,0.00,,,0.00,0,Wunderground v.1.15,2013-03-21 11:38:00,
2013-03-21 04:39:00,47.5,29.3,29.71,WSW,249,16.0,23.0,49,0.00,,,0.00,0,Wunderground v.1.15,2013-03-21 11:39:00,
2013-03-21 04:40:00,47.6,29.4,29.71,WSW,240,20.0,20.0,49,0.00,,,0.00,0,Wunderground v.1.15,2013-03-21 11:40:00,
2013-03-21 04:42:00,47.7,29.5,29.71,WSW,242,11.0,20.0,49,0.00,,,0.00,0,Wunderground v.1.15,2013-03-21 11:42:00,
2013-03-21 04:43:00,47.7,29.5,29.71,SW,234,18.0,20.0,49,0.00,,,0.00,0,Wunderground v.1.15,2013-03-21 11:43:00,
2013-03-21 04:44:00,47.7,29.5,29.71,WSW,242,20.0,23.0,49,0.00,,,0.00,0,Wunderground v.1.15,2013-03-21 11:44:00,
2013-03-21 04:45:00,47.7,29.5,29.71,WSW,246,19.0,23.0,49,0.00,,,0.00,0,Wunderground v.1.15,2013-03-21 11:45:00,
2013-03-21 04:47:00,47.7,29.5,29.71,SW,236,9.0,23.0,49,0.00,,,0.00,0,Wunderground v.1.15,2013-03-21 11:47:00,
2013-03-21 04:48:00,47.6,29.4,29.71,WSW,251,14.0,23.0,49,0.00,,,0.00,0,Wunderground v.1.15,2013-03-21 11:48:00,
2013-03-21 04:49:00,47.6,29.4,29.71,SW,232,16.0,23.0,49,0.00,,,0.00,0,Wunderground v.1.15,2013-03-21 11:49:00,
2013-03-21 04:52:00,47.5,29.8,29.71,SW,236,15.0,23.0,50,0.00,,,0.00,0,Wunderground v.1.15,2013-03-21 11:52:00,
2013-03-21 04:53:00,47.5,29.8,29.71,WSW,244,20.0,23.0,50,0.00,,,0.00,0,Wunderground v.1.15,2013-03-21 11:53:00,
2013-03-21 04:54:00,47.5,29.8,29.71,WSW,242,21.0,25.0,50,0.00,,,0.00,0,Wunderground v.1.15,2013-03-21 11:54:00,
2013-03-21 04:57:00,47.5,29.8,29.71,WSW,252,17.0,25.0,50,0.00,,,0.00,0,Wunderground v.1.15,2013-03-21 11:57:00,
2013-03-21 04:58:00,47.5,29.8,29.71,WSW,243,21.0,25.0,50,0.00,,,0.00,0,Wunderground v.1.15,2013-03-21 11:58:00,
2013-03-21 04:59:00,47.5,29.8,29.71,SW,234,18.0,25.0,50,0.00,,,0.00,0,Wunderground v.1.15,2013-03-21 11:59:00,
2013-03-21 05:00:00,47.6,29.9,29.71,WSW,256,18.0,18.0,50,0.00,,,0.00,0,Wunderground v.1.15,2013-03-21 12:00:00,
2013-03-21 05:04:00,47.5,29.8,29.70,SW,233,15.0,22.0,50,0.00,,,0.00,0,Wunderground v.1.15,2013-03-21 12:04:00,
2013-03-21 05:05:00,47.5,29.8,29.70,WSW,258,17.0,22.0,50,0.00,,,0.00,0,Wunderground v.1.15,2013-03-21 12:05:00,
2013-03-21 05:09:00,47.3,29.6,29.70,SW,230,13.0,22.0,50,0.00,,,0.00,0,Wunderground v.1.15,2013-03-21 12:09:00,
2013-03-21 05:10:00,47.2,29.5,29.70,WSW,254,12.0,15.0,50,0.00,,,0.00,0,Wunderground v.1.15,2013-03-21 12:10:00,
2013-03-21 05:14:00,46.9,29.2,29.70,WSW,244,11.0,15.0,50,0.00,,,0.00,0,Wunderground v.1.15,2013-03-21 12:14:00,
2013-03-21 05:15:00,46.9,29.2,29.69,WSW,252,20.0,21.0,50,0.00,,,0.00,0,Wunderground v.1.15,2013-03-21 12:15:00,
2013-03-21 05:19:00,47.1,29.4,29.69,WSW,244,12.0,21.0,50,0.00,,,0.00,0,Wunderground v.1.15,2013-03-21 12:19:00,
2013-03-21 05:20:00,47.1,29.4,29.69,SW,229,14.0,14.0,50,0.00,,,0.00,0,Wunderground v.1.15,2013-03-21 12:20:00,
2013-03-21 05:21:00,47.0,29.3,29.69,WSW,249,14.0,16.0,50,0.00,,,0.00,0,Wunderground v.1.15,2013-03-21 12:21:00,
2013-03-21 05:22:00,46.9,29.2,29.69,West,260,14.0,17.0,50,0.00,,,0.00,0,Wunderground v.1.15,2013-03-21 12:22:00,
2013-03-21 05:25:00,47.0,29.3,29.69,WSW,248,13.0,17.0,50,0.00,,,0.00,0,Wunderground v.1.15,2013-03-21 12:25:00,
2013-03-21 05:26:00,47.0,29.3,29.69,WSW,244,6.0,17.0,50,0.00,,,0.00,0,Wunderground v.1.15,2013-03-21 12:26:00,
2013-03-21 05:28:00,46.7,29.5,29.69,West,268,7.0,17.0,51,0.00,,,0.00,0,Wunderground v.1.15,2013-03-21 12:28:00,
2013-03-21 05:30:00,46.5,29.3,29.69,West,262,10.0,14.0,51,0.00,,,0.00,0,Wunderground v.1.15,2013-03-21 12:30:00,
2013-03-21 05:31:00,46.6,29.4,29.69,WSW,238,6.0,14.0,51,0.00,,,0.00,0,Wunderground v.1.15,2013-03-21 12:31:00,
2013-03-21 05:33:00,46.7,29.5,29.69,West,261,15.0,18.0,51,0.00,,,0.00,0,Wunderground v.1.15,2013-03-21 12:33:00,
2013-03-21 05:35:00,47.1,29.4,29.69,WSW,252,6.0,19.0,50,0.00,,,0.00,0,Wunderground v.1.15,2013-03-21 12:35:00,
2013-03-21 05:36:00,47.1,29.4,29.69,WSW,238,10.0,19.0,50,0.00,,,0.00,0,Wunderground v.1.15,2013-03-21 12:36:00,
2013-03-21 05:38:00,47.1,28.9,29.69,West,261,10.0,19.0,49,0.00,,,0.00,0,Wunderground v.1.15,2013-03-21 12:38:00,
2013-03-21 05:41:00,47.0,29.3,29.69,SW,232,10.0,12.0,50,0.00,,,0.00,0,Wunderground v.1.15,2013-03-21 12:41:00,
2013-03-21 05:42:00,46.9,29.2,29.69,SW,228,9.0,12.0,50,0.00,,,0.00,0,Wunderground v.1.15,2013-03-21 12:42:00,
2013-03-21 05:43:00,46.9,29.2,29.69,WSW,251,6.0,12.0,50,0.00,,,0.00,0,Wunderground v.1.15,2013-03-21 12:43:00,
2013-03-21 05:46:00,47.0,28.8,29.69,WSW,241,6.0,13.0,49,0.00,,,0.00,0,Wunderground v.1.15,2013-03-21 12:46:00,
2013-03-21 05:47:00,47.0,28.8,29.69,WSW,258,4.0,13.0,49,0.00,,,0.00,0,Wunderground v.1.15,2013-03-21 12:47:00,
2013-03-21 05:48:00,47.0,28.8,29.69,SW,221,0.0,13.0,49,0.00,,,0.00,0,Wunderground v.1.15,2013-03-21 12:48:00,
2013-03-21 05:52:00,47.0,28.8,29.69,West,262,5.0,10.0,49,0.00,,,0.00,0,Wunderground v.1.15,2013-03-21 12:52:00,
2013-03-21 05:53:00,47.0,28.8,29.69,West,263,0.0,10.0,49,0.00,,,0.00,0,Wunderground v.1.15,2013-03-21 12:53:00,
2013-03-21 05:57:00,46.9,28.7,29.69,West,261,0.0,10.0,49,0.00,,,0.00,0,Wunderground v.1.15,2013-03-21 12:57:00,
2013-03-21 05:58:00,46.8,28.6,29.69,West,261,0.0,10.0,49,0.00,,,0.00,0,Wunderground v.1.15,2013-03-21 12:58:00,
2013-03-21 06:02:00,46.3,28.7,29.69,West,261,0.0,2.0,50,0.00,,,0.00,0,Wunderground v.1.15,2013-03-21 13:02:00,
2013-03-21 06:03:00,46.3,28.7,29.69,West,261,0.0,2.0,50,0.00,,,0.00,0,Wunderground v.1.15,2013-03-21 13:03:00,
2013-03-21 06:04:00,46.2,28.1,29.69,West,261,0.0,2.0,49,0.00,,,0.00,0,Wunderground v.1.15,2013-03-21 13:04:00,
2013-03-21 06:07:00,45.6,28.0,29.69,WSW,246,0.0,2.0,50,0.00,,,0.00,0,Wunderground v.1.15,2013-03-21 13:07:00,
2013-03-21 06:08:00,45.6,28.0,29.69,WSW,246,0.0,2.0,50,0.00,,,0.00,0,Wunderground v.1.15,2013-03-21 13:08:00,
2013-03-21 06:09:00,45.6,28.5,29.69,NNE,19,0.0,2.0,51,0.00,,,0.00,0,Wunderground v.1.15,2013-03-21 13:09:00,
2013-03-21 06:13:00,46.7,29.0,29.69,West,259,13.0,14.0,50,0.00,,,0.00,0,Wunderground v.1.15,2013-03-21 13:13:00,
2013-03-21 06:14:00,47.0,28.8,29.69,South,188,8.0,14.0,49,0.00,,,0.00,0,Wunderground v.1.15,2013-03-21 13:14:00,
2013-03-21 06:31:00,47.7,28.9,29.69,West,272,13.0,17.0,48,0.00,,,0.00,0,Wunderground v.1.15,2013-03-21 13:31:00,
2013-03-21 06:32:00,47.7,28.9,29.69,WNW,287,12.0,17.0,48,0.00,,,0.00,5,Wunderground v.1.15,2013-03-21 13:32:00,
2013-03-21 06:36:00,47.4,28.2,29.69,West,277,0.0,17.0,47,0.00,,,0.00,9,Wunderground v.1.15,2013-03-21 13:36:00,
2013-03-21 06:37:00,47.3,28.1,29.69,West,276,0.0,6.0,47,0.00,,,0.00,11,Wunderground v.1.15,2013-03-21 13:37:00,
2013-03-21 06:42:00,47.1,27.9,29.70,West,263,5.0,6.0,47,0.00,,,0.00,16,Wunderground v.1.15,2013-03-21 13:42:00,
2013-03-21 06:47:00,46.7,28.5,29.70,SW,227,0.0,0.0,49,0.00,,,0.00,25,Wunderground v.1.15,2013-03-21 13:47:00,
2013-03-21 06:48:00,46.6,28.4,29.70,South,179,0.0,0.0,49,0.00,,,0.00,26,Wunderground v.1.15,2013-03-21 13:48:00,
2013-03-21 06:53:00,46.1,28.5,29.70,South,181,8.0,9.0,50,0.00,,,0.00,33,Wunderground v.1.15,2013-03-21 13:53:00,
2013-03-21 06:58:00,46.3,28.7,29.70,South,178,2.0,8.0,50,0.00,,,0.00,42,Wunderground v.1.15,2013-03-21 13:58:00,
2013-03-21 07:03:00,46.3,28.7,29.70,South,180,0.0,7.0,50,0.00,,,0.00,51,Wunderground v.1.15,2013-03-21 14:03:00,
2013-03-21 07:08:00,46.2,29.1,29.71,South,184,0.0,10.0,51,0.00,,,0.00,62,Wunderground v.1.15,2013-03-21 14:08:00,
2013-03-21 07:09:00,46.2,29.1,29.71,South,184,0.0,10.0,51,0.00,,,0.00,65,Wunderground v.1.15,2013-03-21 14:09:00,
2013-03-21 07:13:00,46.1,29.0,29.71,SSW,202,0.0,3.0,51,0.00,,,0.00,77,Wunderground v.1.15,2013-03-21 14:13:00,
2013-03-21 07:14:00,46.0,28.9,29.71,SSW,203,0.0,3.0,51,0.00,,,0.00,77,Wunderground v.1.15,2013-03-21 14:14:00,
2013-03-21 07:15:00,46.0,28.9,29.71,SSW,205,0.0,3.0,51,0.00,,,0.00,81,Wunderground v.1.15,2013-03-21 14:15:00,
2013-03-21 07:18:00,46.1,29.0,29.71,SW,227,8.0,9.0,51,0.00,,,0.00,90,Wunderground v.1.15,2013-03-21 14:18:00,
2013-03-21 07:19:00,46.1,28.5,29.71,SW,222,5.0,9.0,50,0.00,,,0.00,90,Wunderground v.1.15,2013-03-21 14:19:00,
2013-03-21 07:20:00,46.2,28.6,29.71,SW,223,2.0,2.0,50,0.00,,,0.00,86,Wunderground v.1.15,2013-03-21 14:20:00,
2013-03-21 07:24:00,46.4,29.2,29.71,SW,214,5.0,10.0,51,0.00,,,0.00,121,Wunderground v.1.15,2013-03-21 14:24:00,
2013-03-21 07:25:00,46.4,29.2,29.71,SW,226,4.0,10.0,51,0.00,,,0.00,139,Wunderground v.1.15,2013-03-21 14:25:00,
2013-03-21 07:29:00,46.5,29.3,29.71,SW,230,5.0,10.0,51,0.00,,,0.00,146,Wunderground v.1.15,2013-03-21 14:29:00,
2013-03-21 07:30:00,46.5,29.3,29.71,SW,217,5.0,5.0,51,0.00,,,0.00,160,Wunderground v.1.15,2013-03-21 14:30:00,
2013-03-21 07:31:00,46.5,29.3,29.71,SW,223,4.0,6.0,51,0.00,,,0.00,141,Wunderground v.1.15,2013-03-21 14:31:00,
2013-03-21 07:34:00,46.6,29.9,29.71,SW,234,7.0,8.0,52,0.00,,,0.00,151,Wunderground v.1.15,2013-03-21 14:34:00,
2013-03-21 07:35:00,46.6,29.9,29.71,SSW,206,0.0,9.0,52,0.00,,,0.00,146,Wunderground v.1.15,2013-03-21 14:35:00,
2013-03-21 07:36:00,46.6,29.9,29.71,SW,219,0.0,9.0,52,0.00,,,0.00,135,Wunderground v.1.15,2013-03-21 14:36:00,
2013-03-21 07:39:00,46.6,29.9,29.71,SSW,210,5.0,9.0,52,0.00,,,0.00,179,Wunderground v.1.15,2013-03-21 14:39:00,
2013-03-21 07:40:00,46.6,29.9,29.71,SW,215,10.0,10.0,52,0.00,,,0.00,162,Wunderground v.1.15,2013-03-21 14:40:00,
2013-03-21 07:41:00,46.7,29.5,29.71,South,186,6.0,10.0,51,0.00,,,0.00,139,Wunderground v.1.15,2013-03-21 14:41:00,
2013-03-21 07:44:00,46.8,29.6,29.70,SW,214,0.0,10.0,51,0.00,,,0.00,151,Wunderground v.1.15,2013-03-21 14:44:00,
2013-03-21 07:45:00,46.9,29.7,29.71,SW,221,0.0,10.0,51,0.00,,,0.00,146,Wunderground v.1.15,2013-03-21 14:45:00,
2013-03-21 07:46:00,46.9,29.7,29.71,SW,219,0.0,10.0,51,0.00,,,0.00,139,Wunderground v.1.15,2013-03-21 14:46:00,
2013-03-21 07:49:00,47.0,29.8,29.71,SW,227,0.0,10.0,51,0.00,,,0.00,181,Wunderground v.1.15,2013-03-21 14:49:00,
2013-03-21 07:50:00,47.0,29.8,29.71,SW,224,0.0,1.0,51,0.00,,,0.00,220,Wunderground v.1.15,2013-03-21 14:50:00,
2013-03-21 07:52:00,47.2,30.0,29.71,SSW,212,5.0,10.0,51,0.00,,,0.00,207,Wunderground v.1.15,2013-03-21 14:52:00,
2013-03-21 07:54:00,47.4,29.7,29.71,SW,214,0.0,10.0,50,0.00,,,0.00,269,Wunderground v.1.15,2013-03-21 14:54:00,
2013-03-21 07:55:00,47.4,29.7,29.71,SW,215,1.0,10.0,50,0.00,,,0.00,246,Wunderground v.1.15,2013-03-21 14:55:00,
2013-03-21 07:56:00,47.4,29.7,29.71,SSW,210,0.0,10.0,50,0.00,,,0.00,246,Wunderground v.1.15,2013-03-21 14:56:00,
2013-03-21 07:57:00,47.5,29.8,29.71,SSW,207,0.0,10.0,50,0.00,,,0.00,257,Wunderground v.1.15,2013-03-21 14:57:00,
2013-03-21 07:59:00,47.7,30.0,29.71,SSW,205,0.0,10.0,50,0.00,,,0.00,287,Wunderground v.1.15,2013-03-21 14:59:00,
2013-03-21 08:01:00,47.8,30.0,29.71,SSW,203,0.0,3.0,50,0.00,,,0.00,292,Wunderground v.1.15,2013-03-21 15:01:00,
2013-03-21 08:02:00,48.1,30.3,29.71,SW,221,0.0,3.0,50,0.00,,,0.00,297,Wunderground v.1.15,2013-03-21 15:02:00,
2013-03-21 08:04:00,48.4,30.1,29.71,SW,219,0.0,3.0,49,0.00,,,0.00,271,Wunderground v.1.15,2013-03-21 15:04:00,
2013-03-21 08:05:00,48.5,30.2,29.71,SW,221,0.0,3.0,49,0.00,,,0.00,253,Wunderground v.1.15,2013-03-21 15:05:00,
2013-03-21 08:06:00,48.6,30.3,29.71,WSW,241,0.0,3.0,49,0.00,,,0.00,265,Wunderground v.1.15,2013-03-21 15:06:00,
2013-03-21 08:07:00,48.7,29.9,29.71,WSW,240,0.0,6.0,48,0.00,,,0.00,285,Wunderground v.1.15,2013-03-21 15:07:00,
2013-03-21 08:10:00,48.9,30.1,29.71,SW,222,0.0,1.0,48,0.00,,,0.00,306,Wunderground v.1.15,2013-03-21 15:10:00,
2013-03-21 08:12:00,49.0,30.1,29.71,SW,222,7.0,7.0,48,0.00,,,0.00,336,Wunderground v.1.15,2013-03-21 15:12:00,
2013-03-21 08:15:00,49.2,29.8,29.71,SSW,211,7.0,9.0,47,0.00,,,0.00,367,Wunderground v.1.15,2013-03-21 15:15:00,
2013-03-21 08:16:00,49.2,29.8,29.71,SSW,211,6.0,9.0,47,0.00,,,0.00,367,Wunderground v.1.15,2013-03-21 15:16:00,
2013-03-21 08:17:00,49.2,29.8,29.71,SSW,213,7.0,9.0,47,0.00,,,0.00,376,Wunderground v.1.15,2013-03-21 15:17:00,
2013-03-21 08:18:00,49.2,29.8,29.71,SW,215,5.0,9.0,47,0.00,,,0.00,376,Wunderground v.1.15,2013-03-21 15:18:00,
2013-03-21 08:20:00,49.3,29.9,29.71,SW,214,5.0,7.0,47,0.00,,,0.00,373,Wunderground v.1.15,2013-03-21 15:20:00,
2013-03-21 08:21:00,49.4,30.0,29.71,SSW,196,3.0,7.0,47,0.00,,,0.00,378,Wunderground v.1.15,2013-03-21 15:21:00,
2013-03-21 08:22:00,49.5,30.1,29.71,SSW,206,4.0,10.0,47,0.00,,,0.00,353,Wunderground v.1.15,2013-03-21 15:22:00,
2013-03-21 08:23:00,49.5,30.1,29.71,South,188,4.0,10.0,47,0.00,,,0.00,353,Wunderground v.1.15,2013-03-21 15:23:00,
2013-03-21 08:25:00,49.6,30.2,29.71,SSW,196,5.0,10.0,47,0.00,,,0.00,394,Wunderground v.1.15,2013-03-21 15:25:00,
2013-03-21 08:26:00,49.6,30.2,29.70,SW,214,5.0,10.0,47,0.00,,,0.00,399,Wunderground v.1.15,2013-03-21 15:26:00,
2013-03-21 08:27:00,49.6,30.2,29.71,SW,217,5.0,10.0,47,0.00,,,0.00,404,Wunderground v.1.15,2013-03-21 15:27:00,
2013-03-21 08:28:00,49.6,30.2,29.71,SW,223,0.0,10.0,47,0.00,,,0.00,404,Wunderground v.1.15,2013-03-21 15:28:00,
2013-03-21 08:31:00,49.9,30.5,29.71,SSW,206,0.0,6.0,47,0.00,,,0.00,410,Wunderground v.1.15,2013-03-21 15:31:00,
2013-03-21 08:32:00,50.0,30.5,29.71,SW,229,5.0,8.0,47,0.00,,,0.00,420,Wunderground v.1.15,2013-03-21 15:32:00,
2013-03-21 08:33:00,50.0,30.5,29.71,SW,234,7.0,8.0,47,0.00,,,0.00,411,Wunderground v.1.15,2013-03-21 15:33:00,
2013-03-21 08:37:00,50.4,30.4,29.70,South,191,5.0,9.0,46,0.00,,,0.00,436,Wunderground v.1.15,2013-03-21 15:37:00,
2013-03-21 08:38:00,50.5,29.9,29.70,South,176,3.0,9.0,45,0.00,,,0.00,443,Wunderground v.1.15,2013-03-21 15:38:00,
2013-03-21 08:42:00,50.8,29.6,29.70,SSW,193,3.0,7.0,44,0.00,,,0.00,427,Wunderground v.1.15,2013-03-21 15:42:00,
2013-03-21 08:43:00,50.9,29.7,29.70,SW,231,10.0,10.0,44,0.00,,,0.00,425,Wunderground v.1.15,2013-03-21 15:43:00,
2013-03-21 08:44:00,51.0,29.8,29.70,SW,217,7.0,10.0,44,0.00,,,0.00,415,Wunderground v.1.15,2013-03-21 15:44:00,
2013-03-21 08:47:00,51.4,30.2,29.70,SW,225,9.0,10.0,44,0.00,,,0.00,468,Wunderground v.1.15,2013-03-21 15:47:00,
2013-03-21 08:48:00,51.5,29.7,29.70,SW,222,0.0,10.0,43,0.00,,,0.00,466,Wunderground v.1.15,2013-03-21 15:48:00,
2013-03-21 08:49:00,51.5,30.3,29.70,SSW,211,5.0,10.0,44,0.00,,,0.00,475,Wunderground v.1.15,2013-03-21 15:49:00,
2013-03-21 08:53:00,51.7,29.3,29.70,SW,224,12.0,12.0,42,0.00,,,0.00,492,Wunderground v.1.15,2013-03-21 15:53:00,
2013-03-21 08:54:00,51.7,29.9,29.70,SSW,213,3.0,12.0,43,0.00,,,0.00,492,Wunderground v.1.15,2013-03-21 15:54:00,
2013-03-21 08:58:00,52.3,29.9,29.70,SW,216,6.0,12.0,42,0.00,,,0.00,504,Wunderground v.1.15,2013-03-21 15:58:00,
2013-03-21 08:59:00,52.3,29.9,29.70,SW,223,6.0,12.0,42,0.00,,,0.00,504,Wunderground v.1.15,2013-03-21 15:59:00,
2013-03-21 09:04:00,52.2,29.2,29.70,SSW,211,8.0,11.0,41,0.00,,,0.00,520,Wunderground v.1.15,2013-03-21 16:04:00,
2013-03-21 09:05:00,52.3,29.3,29.70,South,187,6.0,11.0,41,0.00,,,0.00,522,Wunderground v.1.15,2013-03-21 16:05:00,
2013-03-21 09:09:00,52.7,29.6,29.70,South,183,2.0,11.0,41,0.00,,,0.00,529,Wunderground v.1.15,2013-03-21 16:09:00,
2013-03-21 09:10:00,52.8,29.7,29.70,SSW,208,9.0,9.0,41,0.00,,,0.00,520,Wunderground v.1.15,2013-03-21 16:10:00,
2013-03-21 09:14:00,53.1,28.8,29.70,South,182,4.0,9.0,39,0.00,,,0.00,545,Wunderground v.1.15,2013-03-21 16:14:00,
2013-03-21 09:15:00,53.0,28.7,29.70,South,178,5.0,9.0,39,0.00,,,0.00,545,Wunderground v.1.15,2013-03-21 16:15:00,
2013-03-21 09:19:00,53.1,28.1,29.69,SW,217,2.0,9.0,38,0.00,,,0.00,499,Wunderground v.1.15,2013-03-21 16:19:00,
2013-03-21 09:20:00,53.1,28.1,29.69,SW,217,2.0,4.0,38,0.00,,,0.00,499,Wunderground v.1.15,2013-03-21 16:20:00,
2013-03-21 09:21:00,53.2,28.9,29.70,South,178,6.0,8.0,39,0.00,,,0.00,547,Wunderground v.1.15,2013-03-21 16:21:00,
2013-03-21 09:24:00,53.5,27.8,29.69,SW,231,0.0,10.0,37,0.00,,,0.00,564,Wunderground v.1.15,2013-03-21 16:24:00,
2013-03-21 09:25:00,53.5,27.8,29.69,SW,227,0.0,10.0,37,0.00,,,0.00,554,Wunderground v.1.15,2013-03-21 16:25:00,
2013-03-21 09:26:00,53.8,27.4,29.70,SW,232,1.0,10.0,36,0.00,,,0.00,585,Wunderground v.1.15,2013-03-21 16:26:00,
2013-03-21 09:30:00,53.9,26.1,29.70,SW,232,6.0,6.0,34,0.00,,,0.00,582,Wunderground v.1.15,2013-03-21 16:30:00,
2013-03-21 09:31:00,53.9,26.1,29.70,SW,234,0.0,6.0,34,0.00,,,0.00,594,Wunderground v.1.15,2013-03-21 16:31:00,
2013-03-21 09:32:00,53.8,26.1,29.70,WSW,253,4.0,6.0,34,0.00,,,0.00,599,Wunderground v.1.15,2013-03-21 16:32:00,
2013-03-21 09:35:00,53.7,26.0,29.70,SW,227,0.0,12.0,34,0.00,,,0.00,605,Wunderground v.1.15,2013-03-21 16:35:00,
2013-03-21 09:36:00,53.7,26.0,29.70,SW,231,0.0,12.0,34,0.00,,,0.00,613,Wunderground v.1.15,2013-03-21 16:36:00,
2013-03-21 09:37:00,53.7,25.2,29.70,SW,234,0.0,12.0,33,0.00,,,0.00,613,Wunderground v.1.15,2013-03-21 16:37:00,
2013-03-21 09:40:00,53.8,25.3,29.70,WNW,294,0.0,3.0,33,0.00,,,0.00,619,Wunderground v.1.15,2013-03-21 16:40:00,
2013-03-21 09:41:00,53.9,26.1,29.70,SW,230,0.0,3.0,34,0.00,,,0.00,624,Wunderground v.1.15,2013-03-21 16:41:00,
2013-03-21 09:43:00,54.4,26.6,29.70,South,186,2.0,7.0,34,0.00,,,0.00,621,Wunderground v.1.15,2013-03-21 16:43:00,
2013-03-21 09:45:00,54.6,26.0,29.70,SW,218,6.0,7.0,33,0.00,,,0.00,636,Wunderground v.1.15,2013-03-21 16:45:00,
2013-03-21 09:47:00,54.6,25.3,29.70,SSE,151,1.0,7.0,32,0.00,,,0.00,642,Wunderground v.1.15,2013-03-21 16:47:00,
2013-03-21 09:48:00,54.7,26.1,29.70,SSW,197,0.0,7.0,33,0.00,,,0.00,645,Wunderground v.1.15,2013-03-21 16:48:00,
2013-03-21 09:50:00,55.3,26.7,29.70,South,169,0.0,10.0,33,0.00,,,0.00,649,Wunderground v.1.15,2013-03-21 16:50:00,
2013-03-21 09:51:00,55.4,26.7,29.70,SSE,159,3.0,10.0,33,0.00,,,0.00,650,Wunderground v.1.15,2013-03-21 16:51:00,
2013-03-21 09:52:00,55.6,26.9,29.70,SSE,159,0.0,10.0,33,0.00,,,0.00,652,Wunderground v.1.15,2013-03-21 16:52:00,
2013-03-21 09:53:00,55.8,27.1,29.70,SSE,159,0.0,10.0,33,0.00,,,0.00,654,Wunderground v.1.15,2013-03-21 16:53:00,
2013-03-21 09:55:00,56.3,26.0,29.69,SW,234,6.0,10.0,31,0.00,,,0.00,659,Wunderground v.1.15,2013-03-21 16:55:00,
2013-03-21 09:56:00,56.4,26.1,29.69,SW,234,5.0,10.0,31,0.00,,,0.00,661,Wunderground v.1.15,2013-03-21 16:56:00,
2013-03-21 09:59:00,56.3,26.0,29.70,SW,223,6.0,10.0,31,0.00,,,0.00,670,Wunderground v.1.15,2013-03-21 16:59:00,
2013-03-21 10:00:00,56.1,25.1,29.69,SW,219,0.0,3.0,30,0.00,,,0.00,673,Wunderground v.1.15,2013-03-21 17:00:00,
2013-03-21 10:02:00,56.1,25.8,29.69,WSW,240,5.0,6.0,31,0.00,,,0.00,671,Wunderground v.1.15,2013-03-21 17:02:00,
2013-03-21 10:04:00,56.1,25.1,29.69,SSW,196,6.0,9.0,30,0.00,,,0.00,680,Wunderground v.1.15,2013-03-21 17:04:00,
2013-03-21 10:06:00,56.1,25.1,29.69,SSW,211,0.0,9.0,30,0.00,,,0.00,682,Wunderground v.1.15,2013-03-21 17:06:00,
2013-03-21 10:07:00,56.3,25.2,29.69,South,184,6.0,9.0,30,0.00,,,0.00,687,Wunderground v.1.15,2013-03-21 17:07:00,
2013-03-21 10:09:00,56.3,24.4,29.69,SSE,150,0.0,9.0,29,0.00,,,0.00,689,Wunderground v.1.15,2013-03-21 17:09:00,
2013-03-21 10:11:00,56.5,23.7,29.69,South,183,0.0,8.0,28,0.00,,,0.00,698,Wunderground v.1.15,2013-03-21 17:11:00,
2013-03-21 10:12:00,56.5,23.7,29.69,South,184,0.0,8.0,28,0.00,,,0.00,701,Wunderground v.1.15,2013-03-21 17:12:00,
2013-03-21 10:14:00,56.7,23.9,29.69,SSW,193,0.0,8.0,28,0.00,,,0.00,708,Wunderground v.1.15,2013-03-21 17:14:00,
2013-03-21 10:15:00,56.7,23.9,29.69,SSW,193,0.0,8.0,28,0.00,,,0.00,708,Wunderground v.1.15,2013-03-21 17:15:00,
2013-03-21 10:16:00,57.0,24.2,29.69,SSW,193,0.0,8.0,28,0.00,,,0.00,712,Wunderground v.1.15,2013-03-21 17:16:00,
2013-03-21 10:17:00,57.1,23.4,29.69,SSW,195,0.0,8.0,27,0.00,,,0.00,717,Wunderground v.1.15,2013-03-21 17:17:00,
2013-03-21 10:19:00,57.4,22.8,29.69,SSW,195,0.0,8.0,26,0.00,,,0.00,719,Wunderground v.1.15,2013-03-21 17:19:00,
2013-03-21 10:20:00,57.5,22.8,29.69,SSW,195,0.0,1.0,26,0.00,,,0.00,717,Wunderground v.1.15,2013-03-21 17:20:00,
2013-03-21 10:22:00,57.7,23.0,29.68,SSW,195,0.0,1.0,26,0.00,,,0.00,721,Wunderground v.1.15,2013-03-21 17:22:00,
2013-03-21 10:24:00,58.3,22.6,29.68,SSW,195,0.0,1.0,25,0.00,,,0.00,728,Wunderground v.1.15,2013-03-21 17:24:00,
2013-03-21 10:25:00,58.7,22.0,29.68,SSE,155,0.0,1.0,24,0.00,,,0.00,728,Wunderground v.1.15,2013-03-21 17:25:00,
2013-03-21 10:26:00,59.0,22.2,29.68,SE,139,0.0,1.0,24,0.00,,,0.00,728,Wunderground v.1.15,2013-03-21 17:26:00,
2013-03-21 10:27:00,59.0,22.2,29.68,SE,139,0.0,1.0,24,0.00,,,0.00,728,Wunderground v.1.15,2013-03-21 17:27:00,
2013-03-21 10:30:00,59.5,21.6,29.68,SSE,159,2.0,2.0,23,0.00,,,0.00,735,Wunderground v.1.15,2013-03-21 17:30:00,
2013-03-21 10:32:00,59.9,23.0,29.68,South,175,0.0,2.0,24,0.00,,,0.00,738,Wunderground v.1.15,2013-03-21 17:32:00,
2013-03-21 10:33:00,59.9,22.0,29.68,SSW,207,0.0,2.0,23,0.00,,,0.00,740,Wunderground v.1.15,2013-03-21 17:33:00,
2013-03-21 10:35:00,59.8,20.8,29.68,SW,215,0.0,5.0,22,0.00,,,0.00,737,Wunderground v.1.15,2013-03-21 17:35:00,
2013-03-21 10:36:00,59.6,20.7,29.68,SW,214,0.0,5.0,22,0.00,,,0.00,744,Wunderground v.1.15,2013-03-21 17:36:00,
2013-03-21 10:38:00,59.7,20.7,29.68,SW,215,0.0,5.0,22,0.00,,,0.00,747,Wunderground v.1.15,2013-03-21 17:38:00,
2013-03-21 10:39:00,59.7,19.6,29.68,SW,236,0.0,5.0,21,0.00,,,0.00,754,Wunderground v.1.15,2013-03-21 17:39:00,
2013-03-21 10:40:00,59.6,19.6,29.68,SW,234,5.0,7.0,21,0.00,,,0.00,758,Wunderground v.1.15,2013-03-21 17:40:00,
2013-03-21 10:42:00,59.4,19.4,29.67,WSW,240,5.0,9.0,21,0.00,,,0.00,759,Wunderground v.1.15,2013-03-21 17:42:00,
2013-03-21 10:43:00,59.0,19.1,29.67,WSW,254,8.0,10.0,21,0.00,,,0.00,759,Wunderground v.1.15,2013-03-21 17:43:00,
2013-03-21 10:44:00,59.0,19.1,29.68,South,188,6.0,10.0,21,0.00,,,0.00,761,Wunderground v.1.15,2013-03-21 17:44:00,
2013-03-21 10:46:00,58.7,18.8,29.68,West,262,0.0,10.0,21,0.00,,,0.00,763,Wunderground v.1.15,2013-03-21 17:46:00,
2013-03-21 10:47:00,58.6,18.7,29.67,West,263,0.0,10.0,21,0.00,,,0.00,765,Wunderground v.1.15,2013-03-21 17:47:00,
2013-03-21 10:48:00,58.6,18.7,29.67,West,261,0.0,10.0,21,0.00,,,0.00,765,Wunderground v.1.15,2013-03-21 17:48:00,
2013-03-21 10:49:00,58.6,19.8,29.67,West,271,5.0,10.0,22,0.00,,,0.00,765,Wunderground v.1.15,2013-03-21 17:49:00,
2013-03-21 10:51:00,59.0,20.2,29.68,SSW,195,7.0,7.0,22,0.00,,,0.00,770,Wunderground v.1.15,2013-03-21 17:51:00,
2013-03-21 10:53:00,59.2,18.1,29.67,SW,234,11.0,20.0,20,0.00,,,0.00,777,Wunderground v.1.15,2013-03-21 17:53:00,
2013-03-21 10:55:00,59.4,17.1,29.67,West,269,19.0,20.0,19,0.00,,,0.00,773,Wunderground v.1.15,2013-03-21 17:55:00,
2013-03-21 10:57:00,59.5,17.1,29.67,WSW,240,10.0,20.0,19,0.00,,,0.00,780,Wunderground v.1.15,2013-03-21 17:57:00,
2013-03-21 10:58:00,59.6,17.2,29.67,WSW,257,14.0,20.0,19,0.00,,,0.00,782,Wunderground v.1.15,2013-03-21 17:58:00,
2013-03-21 10:59:00,59.7,17.3,29.67,SW,225,11.0,20.0,19,0.00,,,0.00,782,Wunderground v.1.15,2013-03-21 17:59:00,
2013-03-21 11:00:00,60.0,16.3,29.67,WSW,242,16.0,16.0,18,0.00,,,0.00,786,Wunderground v.1.15,2013-03-21 18:00:00,
2013-03-21 11:02:00,60.2,15.2,29.67,SW,236,15.0,21.0,17,0.00,,,0.00,791,Wunderground v.1.15,2013-03-21 18:02:00,
2013-03-21 11:03:00,60.3,15.2,29.67,WSW,250,14.0,21.0,17,0.00,,,0.00,793,Wunderground v.1.15,2013-03-21 18:03:00,
2013-03-21 11:04:00,60.3,15.2,29.68,SW,233,13.0,21.0,17,0.00,,,0.00,795,Wunderground v.1.15,2013-03-21 18:04:00,
2013-03-21 11:06:00,60.4,15.3,29.67,WSW,257,17.0,23.0,17,0.00,,,0.00,796,Wunderground v.1.15,2013-03-21 18:06:00,
2013-03-21 11:07:00,60.5,15.4,29.67,SW,227,17.0,23.0,17,0.00,,,0.00,800,Wunderground v.1.15,2013-03-21 18:07:00,
2013-03-21 11:09:00,60.6,15.5,29.68,WSW,249,13.0,23.0,17,0.00,,,0.00,802,Wunderground v.1.15,2013-03-21 18:09:00,
2013-03-21 11:12:00,60.0,15.0,29.67,WSW,253,14.0,15.0,17,0.00,,,0.00,814,Wunderground v.1.15,2013-03-21 18:12:00,
2013-03-21 11:13:00,60.2,15.2,29.67,SW,236,15.0,15.0,17,0.00,,,0.00,814,Wunderground v.1.15,2013-03-21 18:13:00,
2013-03-21 11:14:00,60.5,15.4,29.67,WSW,252,18.0,21.0,17,0.00,,,0.00,817,Wunderground v.1.15,2013-03-21 18:14:00,
2013-03-21 11:18:00,61.0,14.4,29.67,WSW,255,18.0,22.0,16,0.00,,,0.00,828,Wunderground v.1.15,2013-03-21 18:18:00,
2013-03-21 11:19:00,60.9,14.3,29.67,WSW,248,18.0,27.0,16,0.00,,,0.00,835,Wunderground v.1.15,2013-03-21 18:19:00,
2013-03-21 11:23:00,60.4,13.9,29.68,SW,232,14.0,22.0,16,0.00,,,0.00,838,Wunderground v.1.15,2013-03-21 18:23:00,
2013-03-21 11:24:00,60.3,15.2,29.67,WSW,252,24.0,24.0,17,0.00,,,0.00,819,Wunderground v.1.15,2013-03-21 18:24:00,
2013-03-21 11:25:00,60.3,15.2,29.68,WSW,254,17.0,24.0,17,0.00,,,0.00,835,Wunderground v.1.15,2013-03-21 18:25:00,
2013-03-21 11:28:00,60.7,14.2,29.68,WNW,287,10.0,24.0,16,0.00,,,0.00,796,Wunderground v.1.15,2013-03-21 18:28:00,
2013-03-21 11:30:00,61.0,15.8,29.67,West,264,13.0,15.0,17,0.00,,,0.00,851,Wunderground v.1.15,2013-03-21 18:30:00,
2013-03-21 11:33:00,61.4,16.1,29.68,WSW,256,15.0,19.0,17,0.00,,,0.00,831,Wunderground v.1.15,2013-03-21 18:33:00,
2013-03-21 11:34:00,61.5,16.2,29.67,West,274,14.0,19.0,17,0.00,,,0.00,816,Wunderground v.1.15,2013-03-21 18:34:00,
2013-03-21 11:35:00,61.7,15.0,29.67,West,261,17.0,22.0,16,0.00,,,0.00,838,Wunderground v.1.15,2013-03-21 18:35:00,
2013-03-21 11:36:00,61.6,14.9,29.67,WNW,293,15.0,22.0,16,0.00,,,0.00,854,Wunderground v.1.15,2013-03-21 18:36:00,
2013-03-21 11:39:00,61.8,15.1,29.68,West,265,13.0,22.0,16,0.00,,,0.00,849,Wunderground v.1.15,2013-03-21 18:39:00,
2013-03-21 11:40:00,61.7,15.0,29.68,West,281,16.0,17.0,16,0.00,,,0.00,861,Wunderground v.1.15,2013-03-21 18:40:00,
2013-03-21 11:42:00,61.6,14.9,29.67,WNW,293,13.0,17.0,16,0.00,,,0.00,847,Wunderground v.1.15,2013-03-21 18:42:00,
2013-03-21 11:44:00,61.8,15.1,29.68,West,271,13.0,17.0,16,0.00,,,0.00,838,Wunderground v.1.15,2013-03-21 18:44:00,
2013-03-21 11:45:00,62.0,16.6,29.68,WSW,253,14.0,19.0,17,0.00,,,0.00,856,Wunderground v.1.15,2013-03-21 18:45:00,
2013-03-21 11:47:00,62.0,16.6,29.68,West,267,14.0,21.0,17,0.00,,,0.00,863,Wunderground v.1.15,2013-03-21 18:47:00,
2013-03-21 11:49:00,62.1,13.8,29.68,West,260,9.0,21.0,15,0.00,,,0.00,858,Wunderground v.1.15,2013-03-21 18:49:00,
2013-03-21 11:50:00,62.1,15.3,29.67,West,275,13.0,15.0,16,0.00,,,0.00,858,Wunderground v.1.15,2013-03-21 18:50:00,
2013-03-21 11:51:00,62.0,15.2,29.67,West,261,14.0,15.0,16,0.00,,,0.00,849,Wunderground v.1.15,2013-03-21 18:51:00,
2013-03-21 11:52:00,62.0,16.6,29.68,WSW,248,20.0,23.0,17,0.00,,,0.00,844,Wunderground v.1.15,2013-03-21 18:52:00,
2013-03-21 11:55:00,61.8,16.5,29.68,WSW,245,16.0,23.0,17,0.00,,,0.00,867,Wunderground v.1.15,2013-03-21 18:55:00,
2013-03-21 11:57:00,61.6,16.3,29.67,WSW,244,24.0,24.0,17,0.00,,,0.00,868,Wunderground v.1.15,2013-03-21 18:57:00,
2013-03-21 11:58:00,61.6,17.6,29.67,SW,230,17.0,26.0,18,0.00,,,0.00,865,Wunderground v.1.15,2013-03-21 18:58:00,
2013-03-21 12:00:00,61.4,17.5,29.68,WSW,245,11.0,20.0,18,0.00,,,0.00,868,Wunderground v.1.15,2013-03-21 19:00:00,
2013-03-21 12:02:00,61.4,16.1,29.68,West,259,10.0,20.0,17,0.00,,,0.00,756,Wunderground v.1.15,2013-03-21 19:02:00,
2013-03-21 12:04:00,61.1,17.2,29.68,WSW,244,16.0,20.0,18,0.00,,,0.00,842,Wunderground v.1.15,2013-03-21 19:04:00,
2013-03-21 12:05:00,61.1,17.2,29.68,SW,224,13.0,20.0,18,0.00,,,0.00,831,Wunderground v.1.15,2013-03-21 19:05:00,
2013-03-21 12:08:00,61.1,17.2,29.67,WSW,242,10.0,20.0,18,0.00,,,0.00,740,Wunderground v.1.15,2013-03-21 19:08:00,
2013-03-21 12:09:00,61.3,17.4,29.68,WSW,257,11.0,20.0,18,0.00,,,0.00,745,Wunderground v.1.15,2013-03-21 19:09:00,
2013-03-21 12:10:00,61.3,17.4,29.67,SW,230,22.0,23.0,18,0.00,,,0.00,745,Wunderground v.1.15,2013-03-21 19:10:00,
2013-03-21 12:11:00,61.3,17.4,29.67,SW,236,24.0,24.0,18,0.00,,,0.00,745,Wunderground v.1.15,2013-03-21 19:11:00,
2013-03-21 12:13:00,61.1,17.2,29.67,SW,233,20.0,26.0,18,0.00,,,0.00,858,Wunderground v.1.15,2013-03-21 19:13:00,
2013-03-21 12:14:00,61.2,17.3,29.67,WSW,248,25.0,26.0,18,0.00,,,0.00,858,Wunderground v.1.15,2013-03-21 19:14:00,
2013-03-21 12:16:00,61.0,17.1,29.67,WSW,254,18.0,26.0,18,0.00,,,0.00,700,Wunderground v.1.15,2013-03-21 19:16:00,
2013-03-21 12:18:00,60.8,17.0,29.67,SW,228,15.0,26.0,18,0.00,,,0.00,888,Wunderground v.1.15,2013-03-21 19:18:00,
2013-03-21 12:20:00,60.9,17.0,29.67,WSW,244,15.0,19.0,18,0.00,,,0.00,765,Wunderground v.1.15,2013-03-21 19:20:00,
2013-03-21 12:21:00,61.0,17.1,29.68,SW,233,16.0,20.0,18,0.00,,,0.00,800,Wunderground v.1.15,2013-03-21 19:21:00,
2013-03-21 12:22:00,61.1,17.2,29.68,WSW,241,15.0,20.0,18,0.00,,,0.00,789,Wunderground v.1.15,2013-03-21 19:22:00,
2013-03-21 12:23:00,61.3,17.4,29.68,WSW,248,14.0,20.0,18,0.00,,,0.00,775,Wunderground v.1.15,2013-03-21 19:23:00,
2013-03-21 12:26:00,61.5,13.4,29.67,West,262,23.0,23.0,15,0.00,,,0.00,874,Wunderground v.1.15,2013-03-21 19:26:00,
2013-03-21 12:27:00,61.8,13.6,29.67,West,280,17.0,23.0,15,0.00,,,0.00,701,Wunderground v.1.15,2013-03-21 19:27:00,
2013-03-21 12:29:00,61.7,13.5,29.67,West,263,17.0,23.0,15,0.00,,,0.00,728,Wunderground v.1.15,2013-03-21 19:29:00,
2013-03-21 12:31:00,61.7,15.0,29.67,SW,225,17.0,17.0,16,0.00,,,0.00,884,Wunderground v.1.15,2013-03-21 19:31:00,
2013-03-21 12:32:00,61.9,15.1,29.67,SW,227,19.0,22.0,16,0.00,,,0.00,791,Wunderground v.1.15,2013-03-21 19:32:00,
2013-03-21 12:34:00,62.2,15.4,29.67,West,270,12.0,22.0,16,0.00,,,0.00,879,Wunderground v.1.15,2013-03-21 19:34:00,
2013-03-21 12:36:00,62.5,15.6,29.67,WSW,254,12.0,22.0,16,0.00,,,0.00,877,Wunderground v.1.15,2013-03-21 19:36:00,
2013-03-21 12:37:00,62.6,14.2,29.67,WSW,258,16.0,22.0,15,0.00,,,0.00,858,Wunderground v.1.15,2013-03-21 19:37:00,
2013-03-21 12:38:00,62.6,14.2,29.67,WSW,246,15.0,22.0,15,0.00,,,0.00,851,Wunderground v.1.15,2013-03-21 19:38:00,
2013-03-21 12:39:00,62.6,14.2,29.67,West,277,18.0,22.0,15,0.00,,,0.00,819,Wunderground v.1.15,2013-03-21 19:39:00,
2013-03-21 12:42:00,61.9,13.7,29.67,West,271,7.0,20.0,15,0.00,,,0.00,870,Wunderground v.1.15,2013-03-21 19:42:00,
2013-03-21 12:43:00,61.7,13.5,29.67,WSW,237,19.0,23.0,15,0.00,,,0.00,865,Wunderground v.1.15,2013-03-21 19:43:00,
2013-03-21 12:44:00,61.7,15.0,29.67,West,261,20.0,24.0,16,0.00,,,0.00,870,Wunderground v.1.15,2013-03-21 19:44:00,
2013-03-21 12:48:00,61.7,16.4,29.67,West,271,18.0,25.0,17,0.00,,,0.00,874,Wunderground v.1.15,2013-03-21 19:48:00,
2013-03-21 12:49:00,62.3,16.9,29.67,WSW,257,17.0,25.0,17,0.00,,,0.00,772,Wunderground v.1.15,2013-03-21 19:49:00,
2013-03-21 12:53:00,62.0,15.2,29.67,West,262,12.0,22.0,16,0.00,,,0.00,828,Wunderground v.1.15,2013-03-21 19:53:00,
2013-03-21 12:54:00,61.6,14.9,29.67,West,265,21.0,28.0,16,0.00,,,0.00,828,Wunderground v.1.15,2013-03-21 19:54:00,
2013-03-21 12:58:00,61.1,15.9,29.67,West,267,16.0,28.0,17,0.00,,,0.00,770,Wunderground v.1.15,2013-03-21 19:58:00,
2013-03-21 12:59:00,61.0,15.8,29.67,West,261,17.0,28.0,17,0.00,,,0.00,816,Wunderground v.1.15,2013-03-21 19:59:00,
2013-03-21 13:03:00,61.4,16.1,29.67,WSW,250,15.0,21.0,17,0.00,,,0.00,656,Wunderground v.1.15,2013-03-21 20:03:00,
2013-03-21 13:04:00,61.3,16.1,29.67,West,266,18.0,21.0,17,0.00,,,0.00,656,Wunderground v.1.15,2013-03-21 20:04:00,
2013-03-21 13:05:00,61.2,16.0,29.67,WSW,244,15.0,21.0,17,0.00,,,0.00,780,Wunderground v.1.15,2013-03-21 20:05:00,
2013-03-21 13:09:00,61.6,16.3,29.67,WNW,287,10.0,21.0,17,0.00,,,0.00,775,Wunderground v.1.15,2013-03-21 20:09:00,
2013-03-21 13:10:00,61.6,16.3,29.67,West,265,11.0,16.0,17,0.00,,,0.00,580,Wunderground v.1.15,2013-03-21 20:10:00,
2013-03-21 13:14:00,60.9,17.0,29.67,West,265,10.0,26.0,18,0.00,,,0.00,749,Wunderground v.1.15,2013-03-21 20:14:00,
2013-03-21 13:16:00,60.5,16.7,29.67,West,277,12.0,26.0,18,0.00,,,0.00,689,Wunderground v.1.15,2013-03-21 20:16:00,
2013-03-21 13:19:00,61.0,17.1,29.66,WSW,256,12.0,26.0,18,0.00,,,0.00,773,Wunderground v.1.15,2013-03-21 20:19:00,
2013-03-21 13:22:00,61.1,14.5,29.66,West,260,19.0,28.0,16,0.00,,,0.00,622,Wunderground v.1.15,2013-03-21 20:22:00,
2013-03-21 13:24:00,61.0,14.4,29.67,WSW,250,12.0,28.0,16,0.00,,,0.00,659,Wunderground v.1.15,2013-03-21 20:24:00,
2013-03-21 13:25:00,61.0,14.4,29.66,WSW,252,12.0,28.0,16,0.00,,,0.00,659,Wunderground v.1.15,2013-03-21 20:25:00,
2013-03-21 13:27:00,61.0,14.4,29.66,WSW,257,13.0,28.0,16,0.00,,,0.00,754,Wunderground v.1.15,2013-03-21 20:27:00,
2013-03-21 13:30:00,61.1,14.5,29.66,WSW,247,22.0,24.0,16,0.00,,,0.00,752,Wunderground v.1.15,2013-03-21 20:30:00,
2013-03-21 13:32:00,61.1,14.5,29.67,West,262,15.0,24.0,16,0.00,,,0.00,752,Wunderground v.1.15,2013-03-21 20:32:00,
2013-03-21 13:33:00,61.1,14.5,29.66,NW,313,12.0,24.0,16,0.00,,,0.00,571,Wunderground v.1.15,2013-03-21 20:33:00,
2013-03-21 13:35:00,60.4,13.9,29.66,WNW,288,12.0,24.0,16,0.00,,,0.00,503,Wunderground v.1.15,2013-03-21 20:35:00,
2013-03-21 13:37:00,60.2,15.2,29.66,West,266,10.0,24.0,17,0.00,,,0.00,791,Wunderground v.1.15,2013-03-21 20:37:00,
2013-03-21 13:38:00,60.2,15.2,29.66,WNW,291,16.0,24.0,17,0.00,,,0.00,791,Wunderground v.1.15,2013-03-21 20:38:00,
2013-03-21 13:40:00,61.1,15.9,29.66,WSW,239,9.0,14.0,17,0.00,,,0.00,747,Wunderground v.1.15,2013-03-21 20:40:00,
2013-03-21 13:43:00,61.2,14.6,29.66,West,270,15.0,18.0,16,0.00,,,0.00,596,Wunderground v.1.15,2013-03-21 20:43:00,
2013-03-21 13:45:00,61.2,14.6,29.66,West,269,12.0,18.0,16,0.00,,,0.00,824,Wunderground v.1.15,2013-03-21 20:45:00,
2013-03-21 13:48:00,61.4,13.3,29.65,NW,310,4.0,18.0,15,0.00,,,0.00,810,Wunderground v.1.15,2013-03-21 20:48:00,
2013-03-21 13:49:00,61.3,13.2,29.65,West,269,21.0,22.0,15,0.00,,,0.00,807,Wunderground v.1.15,2013-03-21 20:49:00,
2013-03-21 13:51:00,61.5,14.8,29.66,WNW,286,12.0,17.0,16,0.00,,,0.00,803,Wunderground v.1.15,2013-03-21 20:51:00,
2013-03-21 13:54:00,61.7,15.0,29.65,WNW,302,9.0,17.0,16,0.00,,,0.00,800,Wunderground v.1.15,2013-03-21 20:54:00,
2013-03-21 13:57:00,62.2,12.3,29.65,WNW,296,15.0,19.0,14,0.00,,,0.00,784,Wunderground v.1.15,2013-03-21 20:57:00,
2013-03-21 13:59:00,62.0,12.2,29.65,West,281,27.0,27.0,14,0.00,,,0.00,770,Wunderground v.1.15,2013-03-21 20:59:00,
2013-03-21 14:02:00,61.8,12.0,29.65,West,269,16.0,21.0,14,0.00,,,0.00,735,Wunderground v.1.15,2013-03-21 21:02:00,
2013-03-21 14:04:00,61.6,13.4,29.65,WNW,284,20.0,21.0,15,0.00,,,0.00,696,Wunderground v.1.15,2013-03-21 21:04:00,
2013-03-21 14:05:00,61.7,13.5,29.65,West,270,18.0,21.0,15,0.00,,,0.00,802,Wunderground v.1.15,2013-03-21 21:05:00,
2013-03-21 14:08:00,62.0,13.8,29.65,NW,312,8.0,24.0,15,0.00,,,0.00,759,Wunderground v.1.15,2013-03-21 21:08:00,
2013-03-21 14:09:00,62.1,13.8,29.65,WNW,282,14.0,24.0,15,0.00,,,0.00,719,Wunderground v.1.15,2013-03-21 21:09:00,
2013-03-21 14:10:00,62.1,13.8,29.65,West,279,14.0,15.0,15,0.00,,,0.00,719,Wunderground v.1.15,2013-03-21 21:10:00,
2013-03-21 14:13:00,62.0,13.8,29.64,WNW,292,15.0,18.0,15,0.00,,,0.00,777,Wunderground v.1.15,2013-03-21 21:13:00,
2013-03-21 14:14:00,62.1,15.3,29.64,WNW,284,15.0,19.0,16,0.00,,,0.00,775,Wunderground v.1.15,2013-03-21 21:14:00,
2013-03-21 14:15:00,62.2,15.4,29.64,West,278,16.0,19.0,16,0.00,,,0.00,742,Wunderground v.1.15,2013-03-21 21:15:00,
2013-03-21 14:18:00,62.7,14.3,29.64,West,270,5.0,19.0,15,0.00,,,0.00,756,Wunderground v.1.15,2013-03-21 21:18:00,
2013-03-21 14:19:00,62.7,14.3,29.64,West,269,10.0,19.0,15,0.00,,,0.00,756,Wunderground v.1.15,2013-03-21 21:19:00,
2013-03-21 14:20:00,62.7,14.3,29.64,NW,313,10.0,13.0,15,0.00,,,0.00,752,Wunderground v.1.15,2013-03-21 21:20:00,
2013-03-21 14:24:00,62.1,13.8,29.64,WSW,255,11.0,15.0,15,0.00,,,0.00,561,Wunderground v.1.15,2013-03-21 21:24:00,
2013-03-21 14:25:00,62.1,13.8,29.64,West,279,15.0,16.0,15,0.00,,,0.00,533,Wunderground v.1.15,2013-03-21 21:25:00,
2013-03-21 14:29:00,63.0,14.6,29.64,WSW,256,15.0,23.0,15,0.00,,,0.00,765,Wunderground v.1.15,2013-03-21 21:29:00,
2013-03-21 14:30:00,62.9,14.5,29.64,WSW,258,12.0,17.0,15,0.00,,,0.00,765,Wunderground v.1.15,2013-03-21 21:30:00,
2013-03-21 14:35:00,62.4,14.1,29.64,WSW,258,10.0,26.0,15,0.00,,,0.00,745,Wunderground v.1.15,2013-03-21 21:35:00,
2013-03-21 14:40:00,62.9,14.5,29.63,West,277,14.0,16.0,15,0.00,,,0.00,729,Wunderground v.1.15,2013-03-21 21:40:00,
2013-03-21 14:42:00,62.7,14.3,29.63,West,272,17.0,18.0,15,0.00,,,0.00,684,Wunderground v.1.15,2013-03-21 21:42:00,
2013-03-21 14:45:00,62.9,14.5,29.63,West,264,10.0,18.0,15,0.00,,,0.00,714,Wunderground v.1.15,2013-03-21 21:45:00,
2013-03-21 14:46:00,62.9,12.9,29.63,WSW,256,6.0,18.0,14,0.00,,,0.00,714,Wunderground v.1.15,2013-03-21 21:46:00,
2013-03-21 14:47:00,62.9,14.5,29.63,WSW,238,13.0,18.0,15,0.00,,,0.00,671,Wunderground v.1.15,2013-03-21 21:47:00,
2013-03-21 14:50:00,63.1,14.6,29.63,WNW,298,13.0,21.0,15,0.00,,,0.00,601,Wunderground v.1.15,2013-03-21 21:50:00,
2013-03-21 14:52:00,63.1,14.6,29.63,WNW,292,15.0,21.0,15,0.00,,,0.00,601,Wunderground v.1.15,2013-03-21 21:52:00,
2013-03-21 14:53:00,62.9,14.5,29.63,West,271,11.0,21.0,15,0.00,,,0.00,483,Wunderground v.1.15,2013-03-21 21:53:00,
2013-03-21 14:55:00,62.3,14.0,29.63,NNW,341,13.0,21.0,15,0.00,,,0.00,469,Wunderground v.1.15,2013-03-21 21:55:00,
2013-03-21 14:57:00,62.3,15.5,29.62,West,280,14.0,21.0,16,0.00,,,0.00,469,Wunderground v.1.15,2013-03-21 21:57:00,
2013-03-21 14:58:00,62.2,15.4,29.63,West,271,13.0,21.0,16,0.00,,,0.00,469,Wunderground v.1.15,2013-03-21 21:58:00,
2013-03-21 15:00:00,62.2,15.4,29.63,West,267,11.0,15.0,16,0.00,,,0.00,661,Wunderground v.1.15,2013-03-21 22:00:00,
2013-03-21 15:02:00,62.6,15.7,29.62,West,269,9.0,15.0,16,0.00,,,0.00,654,Wunderground v.1.15,2013-03-21 22:02:00,
2013-03-21 15:03:00,62.6,15.7,29.62,WSW,252,7.0,15.0,16,0.00,,,0.00,654,Wunderground v.1.15,2013-03-21 22:03:00,
2013-03-21 15:05:00,63.1,16.1,29.62,NW,311,12.0,16.0,16,0.00,,,0.00,571,Wunderground v.1.15,2013-03-21 22:05:00,
2013-03-21 15:07:00,63.0,16.0,29.62,WNW,286,7.0,16.0,16,0.00,,,0.00,584,Wunderground v.1.15,2013-03-21 22:07:00,
2013-03-21 15:08:00,63.0,16.0,29.62,WNW,300,5.0,16.0,16,0.00,,,0.00,584,Wunderground v.1.15,2013-03-21 22:08:00,
2013-03-21 15:11:00,62.9,16.0,29.62,West,265,13.0,20.0,16,0.00,,,0.00,638,Wunderground v.1.15,2013-03-21 22:11:00,
2013-03-21 15:12:00,62.8,15.9,29.62,WSW,248,16.0,20.0,16,0.00,,,0.00,603,Wunderground v.1.15,2013-03-21 22:12:00,
2013-03-21 15:13:00,62.8,15.9,29.62,WSW,249,10.0,20.0,16,0.00,,,0.00,629,Wunderground v.1.15,2013-03-21 22:13:00,
2013-03-21 15:14:00,62.8,15.9,29.62,West,259,13.0,20.0,16,0.00,,,0.00,629,Wunderground v.1.15,2013-03-21 22:14:00,
2013-03-21 15:17:00,62.8,15.9,29.61,West,276,9.0,20.0,16,0.00,,,0.00,612,Wunderground v.1.15,2013-03-21 22:17:00,
2013-03-21 15:18:00,62.8,15.9,29.61,SW,235,12.0,20.0,16,0.00,,,0.00,612,Wunderground v.1.15,2013-03-21 22:18:00,
2013-03-21 15:20:00,63.0,17.4,29.61,West,269,9.0,13.0,17,0.00,,,0.00,603,Wunderground v.1.15,2013-03-21 22:20:00,
2013-03-21 15:24:00,63.5,16.4,29.61,WSW,246,15.0,21.0,16,0.00,,,0.00,591,Wunderground v.1.15,2013-03-21 22:24:00,
2013-03-21 15:25:00,63.1,16.1,29.61,West,271,16.0,21.0,16,0.00,,,0.00,592,Wunderground v.1.15,2013-03-21 22:25:00,
2013-03-21 15:29:00,62.9,16.0,29.61,WNW,290,7.0,22.0,16,0.00,,,0.00,585,Wunderground v.1.15,2013-03-21 22:29:00,
2013-03-21 15:30:00,62.8,15.9,29.61,WNW,302,16.0,16.0,16,0.00,,,0.00,582,Wunderground v.1.15,2013-03-21 22:30:00,
2013-03-21 15:31:00,62.7,15.8,29.61,NW,317,13.0,19.0,16,0.00,,,0.00,568,Wunderground v.1.15,2013-03-21 22:31:00,
2013-03-21 15:34:00,62.7,15.8,29.61,West,277,13.0,23.0,16,0.00,,,0.00,566,Wunderground v.1.15,2013-03-21 22:34:00,
2013-03-21 15:35:00,62.7,15.8,29.61,WNW,303,9.0,23.0,16,0.00,,,0.00,566,Wunderground v.1.15,2013-03-21 22:35:00,
2013-03-21 15:37:00,62.9,17.4,29.61,West,279,16.0,23.0,17,0.00,,,0.00,563,Wunderground v.1.15,2013-03-21 22:37:00,
2013-03-21 15:39:00,63.0,17.4,29.61,WNW,298,7.0,23.0,17,0.00,,,0.00,561,Wunderground v.1.15,2013-03-21 22:39:00,
2013-03-21 15:40:00,63.0,17.4,29.61,WNW,283,14.0,16.0,17,0.00,,,0.00,554,Wunderground v.1.15,2013-03-21 22:40:00,
2013-03-21 15:43:00,62.9,17.4,29.61,West,268,10.0,23.0,17,0.00,,,0.00,543,Wunderground v.1.15,2013-03-21 22:43:00,
2013-03-21 15:45:00,63.0,17.4,29.61,West,267,10.0,23.0,17,0.00,,,0.00,529,Wunderground v.1.15,2013-03-21 22:45:00,
2013-03-21 15:48:00,62.8,17.3,29.60,WNW,296,13.0,23.0,17,0.00,,,0.00,524,Wunderground v.1.15,2013-03-21 22:48:00,
2013-03-21 15:50:00,62.7,17.2,29.60,WNW,298,9.0,13.0,17,0.00,,,0.00,519,Wunderground v.1.15,2013-03-21 22:50:00,
2013-03-21 15:51:00,62.8,17.3,29.60,NW,313,11.0,13.0,17,0.00,,,0.00,519,Wunderground v.1.15,2013-03-21 22:51:00,
2013-03-21 15:53:00,63.4,16.4,29.60,WSW,242,12.0,19.0,16,0.00,,,0.00,504,Wunderground v.1.15,2013-03-21 22:53:00,
2013-03-21 15:55:00,63.4,17.8,29.60,West,262,11.0,19.0,17,0.00,,,0.00,492,Wunderground v.1.15,2013-03-21 22:55:00,
2013-03-21 15:56:00,63.4,17.8,29.60,West,259,14.0,19.0,17,0.00,,,0.00,489,Wunderground v.1.15,2013-03-21 22:56:00,
2013-03-21 15:59:00,63.4,17.8,29.60,West,264,13.0,19.0,17,0.00,,,0.00,482,Wunderground v.1.15,2013-03-21 22:59:00,
2013-03-21 16:00:00,63.3,17.7,29.60,WSW,244,13.0,16.0,17,0.00,,,0.00,478,Wunderground v.1.15,2013-03-21 23:00:00,
2013-03-21 16:02:00,63.1,17.5,29.60,West,264,12.0,17.0,17,0.00,,,0.00,475,Wunderground v.1.15,2013-03-21 23:02:00,
2013-03-21 16:04:00,63.0,17.4,29.60,West,271,19.0,22.0,17,0.00,,,0.00,469,Wunderground v.1.15,2013-03-21 23:04:00,
2013-03-21 16:05:00,63.0,16.0,29.60,WSW,257,13.0,22.0,16,0.00,,,0.00,464,Wunderground v.1.15,2013-03-21 23:05:00,
2013-03-21 16:06:00,63.0,16.0,29.60,West,263,14.0,22.0,16,0.00,,,0.00,464,Wunderground v.1.15,2013-03-21 23:06:00,
2013-03-21 16:07:00,62.8,15.9,29.60,West,274,15.0,22.0,16,0.00,,,0.00,455,Wunderground v.1.15,2013-03-21 23:07:00,
2013-03-21 16:09:00,62.5,15.6,29.60,WSW,249,12.0,22.0,16,0.00,,,0.00,448,Wunderground v.1.15,2013-03-21 23:09:00,
2013-03-21 19:11:00,50.9,8.8,29.62,NW,307,0.0,-999.0,18,0.00,,,0.00,0,Wunderground v.1.15,2013-03-22 02:11:00,
2013-03-21 19:12:00,51.0,8.9,29.62,NW,307,0.0,-999.0,18,0.00,,,0.00,0,Wunderground v.1.15,2013-03-22 02:12:00,
2013-03-21 19:13:00,51.0,8.9,29.62,NW,307,0.0,-999.0,18,0.00,,,0.00,0,Wunderground v.1.15,2013-03-22 02:13:00,
2013-03-21 19:18:00,51.1,9.0,29.62,NNW,340,2.0,-999.0,18,0.00,,,0.00,0,Wunderground v.1.15,2013-03-22 02:18:00,
2013-03-21 19:23:00,51.5,9.3,29.63,NW,317,0.0,-999.0,18,0.00,,,0.00,0,Wunderground v.1.15,2013-03-22 02:23:00,
2013-03-21 19:28:00,51.7,9.5,29.63,NW,320,4.0,-999.0,18,0.00,,,0.00,0,Wunderground v.1.15,2013-03-22 02:28:00,
2013-03-21 19:33:00,52.0,8.5,29.63,NW,322,7.0,-999.0,17,0.00,,,0.00,0,Wunderground v.1.15,2013-03-22 02:33:00,
2013-03-21 19:38:00,51.7,8.2,29.63,NW,304,5.0,-999.0,17,0.00,,,0.00,0,Wunderground v.1.15,2013-03-22 02:38:00,
2013-03-21 19:43:00,51.4,8.0,29.64,NW,306,10.0,-999.0,17,0.00,,,0.00,0,Wunderground v.1.15,2013-03-22 02:43:00,
2013-03-21 19:48:00,51.9,8.4,29.64,WNW,300,0.0,-999.0,17,0.00,,,0.00,0,Wunderground v.1.15,2013-03-22 02:48:00,
2013-03-21 19:53:00,51.5,9.3,29.64,WNW,292,0.0,-999.0,18,0.00,,,0.00,0,Wunderground v.1.15,2013-03-22 02:53:00,
2013-03-21 19:58:00,50.8,8.7,29.64,WNW,301,0.0,-999.0,18,0.00,,,0.00,0,Wunderground v.1.15,2013-03-22 02:58:00,
2013-03-21 20:03:00,51.1,10.2,29.64,NNW,330,14.0,15.0,19,0.00,,,0.00,0,Wunderground v.1.15,2013-03-22 03:03:00,
2013-03-21 20:08:00,51.8,9.6,29.64,NW,321,0.0,16.0,18,0.00,,,0.00,0,Wunderground v.1.15,2013-03-22 03:08:00,
2013-03-21 20:13:00,51.6,9.4,29.64,SW,236,0.0,9.0,18,0.00,,,0.00,0,Wunderground v.1.15,2013-03-22 03:13:00,
2013-03-21 20:18:00,50.6,9.8,29.64,WSW,246,3.0,12.0,19,0.00,,,0.00,0,Wunderground v.1.15,2013-03-22 03:18:00,
2013-03-21 20:23:00,51.2,9.1,29.65,WSW,254,0.0,16.0,18,0.00,,,0.00,0,Wunderground v.1.15,2013-03-22 03:23:00,
2013-03-21 20:28:00,50.9,8.8,29.65,WSW,241,8.0,16.0,18,0.00,,,0.00,0,Wunderground v.1.15,2013-03-22 03:28:00,
2013-03-21 20:33:00,50.9,8.8,29.65,WSW,245,0.0,9.0,18,0.00,,,0.00,0,Wunderground v.1.15,2013-03-22 03:33:00,
2013-03-21 20:38:00,50.1,8.2,29.65,WSW,256,5.0,9.0,18,0.00,,,0.00,0,Wunderground v.1.15,2013-03-22 03:38:00,
2013-03-21 20:43:00,48.6,9.3,29.65,WNW,287,0.0,7.0,20,0.00,,,0.00,0,Wunderground v.1.15,2013-03-22 03:43:00,
2013-03-21 20:49:00,47.0,7.9,29.65,WNW,287,0.0,2.0,20,0.00,,,0.00,0,Wunderground v.1.15,2013-03-22 03:49:00,
2013-03-21 20:54:00,46.3,6.2,29.65,West,260,0.0,10.0,19,0.00,,,0.00,0,Wunderground v.1.15,2013-03-22 03:54:00,
2013-03-21 20:59:00,47.7,7.4,29.66,SSW,202,10.0,10.0,19,0.00,,,0.00,0,Wunderground v.1.15,2013-03-22 03:59:00,
2013-03-21 21:00:00,47.9,6.4,29.65,South,185,0.0,2.0,18,0.00,,,0.00,0,Wunderground v.1.15,2013-03-22 04:00:00,
2013-03-21 21:01:00,48.3,6.7,29.66,SSW,194,2.0,2.0,18,0.00,,,0.00,0,Wunderground v.1.15,2013-03-22 04:01:00,
2013-03-21 21:02:00,48.5,6.8,29.66,SSW,207,0.0,3.0,18,0.00,,,0.00,0,Wunderground v.1.15,2013-03-22 04:02:00,
2013-03-21 21:07:00,48.0,6.4,29.65,SW,224,1.0,5.0,18,0.00,,,0.00,0,Wunderground v.1.15,2013-03-22 04:07:00,
2013-03-21 21:12:00,48.1,6.5,29.66,SW,228,5.0,9.0,18,0.00,,,0.00,0,Wunderground v.1.15,2013-03-22 04:12:00,
2013-03-21 21:17:00,47.7,7.4,29.65,SW,227,7.0,9.0,19,0.00,,,0.00,0,Wunderground v.1.15,2013-03-22 04:17:00,
2013-03-21 21:22:00,46.9,6.7,29.66,WNW,301,7.0,7.0,19,0.00,,,0.00,0,Wunderground v.1.15,2013-03-22 04:22:00,
2013-03-21 21:27:00,44.9,7.3,29.66,NW,323,1.0,7.0,21,0.00,,,0.00,0,Wunderground v.1.15,2013-03-22 04:27:00,
2013-03-21 21:32:00,44.2,6.7,29.66,NW,323,0.0,2.0,21,0.00,,,0.00,0,Wunderground v.1.15,2013-03-22 04:32:00,
2013-03-21 21:37:00,44.0,8.5,29.66,NW,322,0.0,2.0,23,0.00,,,0.00,0,Wunderground v.1.15,2013-03-22 04:37:00,
2013-03-21 21:42:00,42.5,7.2,29.66,NW,323,0.0,1.0,23,0.00,,,0.00,0,Wunderground v.1.15,2013-03-22 04:42:00,
2013-03-21 21:47:00,40.7,7.5,29.67,NW,323,0.0,1.0,25,0.00,,,0.00,0,Wunderground v.1.15,2013-03-22 04:47:00,
2013-03-21 21:52:00,39.7,5.8,29.66,NW,323,0.0,0.0,24,0.00,,,0.00,0,Wunderground v.1.15,2013-03-22 04:52:00,
2013-03-21 21:57:00,40.8,7.6,29.66,North,349,0.0,0.0,25,0.00,,,0.00,0,Wunderground v.1.15,2013-03-22 04:57:00,
2013-03-21 22:02:00,39.3,7.2,29.67,NNW,336,5.0,5.0,26,0.00,,,0.00,0,Wunderground v.1.15,2013-03-22 05:02:00,
2013-03-21 22:07:00,38.7,6.7,29.66,NNW,336,0.0,6.0,26,0.00,,,0.00,0,Wunderground v.1.15,2013-03-22 05:07:00,
2013-03-21 22:12:00,38.2,7.1,29.67,NNW,336,0.0,1.0,27,0.00,,,0.00,0,Wunderground v.1.15,2013-03-22 05:12:00,
2013-03-21 22:17:00,36.3,7.0,29.67,NNW,336,0.0,3.0,29,0.00,,,0.00,0,Wunderground v.1.15,2013-03-22 05:17:00,
2013-03-21 22:22:00,34.9,6.6,29.68,NNW,336,0.0,0.0,30,0.00,,,0.00,0,Wunderground v.1.15,2013-03-22 05:22:00,
2013-03-21 22:27:00,33.4,7.3,29.68,NNW,336,0.0,0.0,33,0.00,,,0.00,0,Wunderground v.1.15,2013-03-22 05:27:00,
2013-03-21 22:32:00,32.7,7.4,29.68,NNW,336,0.0,6.0,34,0.00,,,0.00,0,Wunderground v.1.15,2013-03-22 05:32:00,
2013-03-21 22:37:00,32.3,7.0,29.68,NNW,336,0.0,6.0,34,0.00,,,0.00,0,Wunderground v.1.15,2013-03-22 05:37:00,
2013-03-21 22:42:00,32.0,6.8,29.68,NNW,336,0.0,1.0,34,0.00,,,0.00,0,Wunderground v.1.15,2013-03-22 05:42:00,
2013-03-21 22:47:00,31.5,6.9,29.68,NNW,336,0.0,1.0,35,0.00,,,0.00,0,Wunderground v.1.15,2013-03-22 05:47:00,
2013-03-21 22:52:00,31.3,7.4,29.67,NNE,12,0.0,0.0,36,0.00,,,0.00,0,Wunderground v.1.15,2013-03-22 05:52:00,
2013-03-21 22:57:00,30.0,7.4,29.67,North,9,0.0,0.0,38,0.00,,,0.00,0,Wunderground v.1.15,2013-03-22 05:57:00,
2013-03-21 23:02:00,30.3,7.1,29.67,North,9,0.0,0.0,37,0.00,,,0.00,0,Wunderground v.1.15,2013-03-22 06:02:00,
2013-03-21 23:07:00,30.2,7.6,29.67,North,9,0.0,0.0,38,0.00,,,0.00,0,Wunderground v.1.15,2013-03-22 06:07:00,
2013-03-21 23:12:00,29.8,7.2,29.67,North,9,0.0,0.0,38,0.00,,,0.00,0,Wunderground v.1.15,2013-03-22 06:12:00,
2013-03-21 23:17:00,29.4,6.9,29.67,North,9,0.0,0.0,38,0.00,,,0.00,0,Wunderground v.1.15,2013-03-22 06:17:00,
2013-03-21 23:22:00,29.2,7.3,29.67,North,9,0.0,0.0,39,0.00,,,0.00,0,Wunderground v.1.15,2013-03-22 06:22:00,
2013-03-21 23:27:00,29.4,7.5,29.68,North,9,0.0,0.0,39,0.00,,,0.00,0,Wunderground v.1.15,2013-03-22 06:27:00,
2013-03-21 23:32:00,29.3,7.4,29.68,North,9,0.0,0.0,39,0.00,,,0.00,0,Wunderground v.1.15,2013-03-22 06:32:00,
2013-03-21 23:38:00,28.7,7.4,29.68,North,9,0.0,0.0,40,0.00,,,0.00,0,Wunderground v.1.15,2013-03-22 06:38:00,
2013-03-21 23:43:00,28.1,6.8,29.68,North,9,0.0,0.0,40,0.00,,,0.00,0,Wunderground v.1.15,2013-03-22 06:43:00,
2013-03-21 23:48:00,27.3,6.7,29.67,North,9,0.0,0.0,41,0.00,,,0.00,0,Wunderground v.1.15,2013-03-22 06:48:00,
2013-03-21 23:53:00,26.6,6.6,29.67,North,9,0.0,0.0,42,0.00,,,0.00,0,Wunderground v.1.15,2013-03-22 06:53:00,
2013-03-21 23:58:00,26.1,6.6,29.67,North,9,0.0,0.0,43,0.00,,,0.00,0,Wunderground v.1.15,2013-03-22 06:58:00,